HIGHLAND LAKE: From 11/25/2018 00:00 to 01/26/2019 00:00

Date LAKE ELEVATION [FT] OBSERVED RELEASE PRECIPITATION INCREMENT [IN] PRECIPITATION TOTAL [IN] AIR TEMPERATURE [F] RELATIVE HUMIDITY [%]
01/24/2019 03:00 1290.74 45.0 0.13 -- 39.2 100.0
01/24/2019 02:00 1290.74 45.0 0.14 -- 37.5 100.0
01/24/2019 01:00 1290.73 45.0 0.10 -- 35.6 100.0
01/24/2019 00:00 1290.74 45.0 0.08 -- 33.6 99.0
01/23/2019 23:00 1290.73 45.0 0.05 -- 34.2 99.0
01/23/2019 22:00 1290.73 45.0 0.00 -- 34.5 99.0
01/23/2019 21:00 1290.73 45.0 0.00 -- 32.2 99.0
01/23/2019 20:00 1290.74 45.0 0.00 -- 31.9 94.0
01/23/2019 19:00 1290.73 45.0 0.00 -- 32.1 88.0
01/23/2019 18:00 1290.74 45.0 0.00 -- 32.0 85.0
01/23/2019 17:00 1290.74 45.0 0.00 -- 31.6 83.0
01/23/2019 16:00 1290.75 45.0 0.00 -- 31.2 73.0
01/23/2019 15:00 1290.75 45.0 0.00 -- 30.1 74.0
01/23/2019 14:00 1290.75 46.0 0.00 -- 29.7 59.0
01/23/2019 13:00 1290.76 46.0 0.00 -- 28.6 53.0
01/23/2019 12:00 1290.76 46.0 0.00 -- 28.4 45.0
01/23/2019 11:00 1290.76 45.0 0.00 -- 25.8 41.0
01/23/2019 10:00 1290.76 46.0 0.00 -- 23.0 44.0
01/23/2019 09:00 1290.76 46.0 0.00 -- 21.4 45.0
01/23/2019 08:00 1290.77 46.0 0.00 -- 20.0 47.0
01/23/2019 07:00 1290.77 47.0 0.00 -- 19.5 43.0
01/23/2019 06:00 1290.78 46.0 0.00 -- 18.7 45.0
01/23/2019 05:00 1290.77 47.0 0.00 -- 18.4 41.0
01/23/2019 04:00 1290.78 47.0 0.00 -- 18.0 39.0
01/23/2019 03:00 1290.78 47.0 0.00 -- 13.6 40.0
01/23/2019 02:00 1290.78 47.0 0.00 -- 9.8 43.0
01/23/2019 01:00 1290.79 47.0 0.00 -- 8.4 51.0
01/23/2019 00:00 1290.79 47.0 0.00 0.13 9.7 40.0
01/22/2019 23:00 1290.79 47.0 0.00 -- 10.2 42.0
01/22/2019 22:00 1290.80 47.0 0.00 -- 10.6 39.0
01/22/2019 21:00 1290.80 48.0 0.00 -- 11.3 32.0
01/22/2019 20:00 1290.80 48.0 0.00 -- 11.6 36.0
01/22/2019 19:00 1290.81 48.0 0.00 -- 11.1 42.0
01/22/2019 18:00 1290.82 48.0 0.00 -- 10.3 40.0
01/22/2019 17:00 1290.82 48.0 0.00 -- 12.6 33.0
01/22/2019 16:00 1290.83 49.0 0.00 -- 15.5 25.0
01/22/2019 15:00 1290.82 49.0 0.00 -- 16.8 23.0
01/22/2019 14:00 1290.82 49.0 0.00 -- 18.3 23.0
01/22/2019 13:00 1290.82 49.0 0.00 -- 17.6 24.0
01/22/2019 12:00 1290.83 49.0 0.00 -- 12.5 26.0
01/22/2019 11:00 1290.84 49.0 0.00 -- 8.8 31.0
01/22/2019 10:00 1290.84 49.0 0.00 -- 4.3 36.0
01/22/2019 09:00 1290.84 50.0 0.00 -- -0.1 48.0
01/22/2019 08:00 1290.84 50.0 0.00 -- -4.2 58.0
01/22/2019 07:00 1290.86 50.0 0.00 -- -5.4 61.0
01/22/2019 06:00 1290.85 50.0 0.00 -- -6.7 62.0
01/22/2019 05:00 1290.86 51.0 0.00 -- -4.5 55.0
01/22/2019 04:00 1290.86 51.0 0.00 -- -4.9 55.0
01/22/2019 03:00 1290.87 51.0 0.00 -- -5.2 56.0
01/22/2019 02:00 1290.87 51.0 0.00 -- -4.9 53.0
01/22/2019 01:00 1290.89 52.0 0.00 -- -4.7 51.0
01/22/2019 00:00 1290.88 51.0 0.00 0.00 -4.9 52.0
01/21/2019 23:00 1290.89 51.0 0.00 -- -4.6 55.0
01/21/2019 22:00 1290.86 51.0 0.00 -- -5.3 55.0
01/21/2019 21:00 1290.87 52.0 0.00 -- -5.3 62.0
01/21/2019 20:00 1290.91 52.0 0.00 -- -4.9 64.0
01/21/2019 19:00 1290.90 52.0 0.00 -- -5.2 68.0
01/21/2019 18:00 1290.90 53.0 0.00 -- -5.1 68.0
01/21/2019 17:00 1290.90 53.0 0.00 -- -5.5 68.0
01/21/2019 16:00 1290.90 53.0 0.00 -- -5.5 63.0
01/21/2019 15:00 1290.90 53.0 0.00 -- -5.3 59.0
01/21/2019 14:00 1290.91 53.0 0.00 -- -5.6 55.0
01/21/2019 13:00 1290.93 53.0 0.00 -- -6.1 53.0
01/21/2019 12:00 1290.90 53.0 0.00 -- -6.0 56.0
01/21/2019 11:00 1290.90 53.0 0.00 -- -7.4 63.0
01/21/2019 10:00 1290.92 53.0 0.00 -- -8.9 60.0
01/21/2019 09:00 1290.91 53.0 0.00 -- -8.9 63.0
01/21/2019 08:00 1290.93 53.0 0.00 -- -8.4 64.0
01/21/2019 07:00 1290.93 54.0 0.00 -- -7.9 63.0
01/21/2019 06:00 1290.92 54.0 0.00 -- -7.3 63.0
01/21/2019 05:00 1290.93 54.0 0.00 -- -6.6 62.0
01/21/2019 04:00 1290.93 54.0 0.00 -- -6.5 65.0
01/21/2019 03:00 1290.93 55.0 0.00 -- -6.6 65.0
01/21/2019 02:00 1290.96 55.0 0.00 -- -6.1 64.0
01/21/2019 01:00 1290.95 55.0 0.00 -- -5.1 65.0
01/21/2019 00:00 1290.96 55.0 0.00 0.00 -4.6 62.0
01/20/2019 23:00 1290.97 56.0 0.00 -- -4.1 63.0
01/20/2019 22:00 1290.97 56.0 0.00 -- -2.9 63.0
01/20/2019 21:00 1290.98 57.0 0.00 -- -0.6 64.0
01/20/2019 20:00 1290.96 56.0 0.00 -- 1.6 68.0
01/20/2019 19:00 1290.96 56.0 0.00 -- 5.5 74.0
01/20/2019 18:00 1290.97 56.0 0.00 -- 9.9 80.0
01/20/2019 17:00 1290.97 56.0 0.00 -- 13.8 83.0
01/20/2019 16:00 1290.98 56.0 0.00 -- 15.7 84.0
01/20/2019 15:00 1290.97 56.0 0.00 -- 16.2 87.0
01/20/2019 14:00 1290.99 56.0 0.00 -- 13.6 89.0
01/20/2019 13:00 1290.98 56.0 0.00 -- 11.6 92.0
01/20/2019 12:00 1290.97 57.0 0.00 -- 10.5 88.0
01/20/2019 11:00 1290.98 57.0 0.00 -- 9.4 87.0
01/20/2019 10:00 1290.99 57.0 0.00 -- 8.7 88.0
01/20/2019 09:00 1290.98 56.0 0.00 -- 7.7 83.0
01/20/2019 08:00 1290.99 57.0 0.00 -- 7.5 86.0
01/20/2019 07:00 1290.99 57.0 0.00 -- 7.8 86.0
01/20/2019 06:00 1290.99 57.0 0.00 -- 8.1 86.0
01/20/2019 05:00 1291.00 57.0 0.00 -- 9.4 86.0
01/20/2019 04:00 1290.99 57.0 0.00 -- 9.7 90.0
01/20/2019 03:00 1290.99 57.0 0.00 -- 10.1 90.0
01/20/2019 02:00 1290.97 57.0 0.00 -- 10.5 91.0
01/20/2019 01:00 1290.97 56.0 0.00 -- 10.7 90.0
01/20/2019 00:00 1290.97 56.0 0.00 0.00 12.2 89.0
01/19/2019 23:00 1290.97 56.0 0.00 -- 16.1 93.0
01/19/2019 22:00 1290.97 56.0 0.00 -- 16.9 93.0
01/19/2019 21:00 1290.98 56.0 0.00 -- 16.7 90.0
01/19/2019 20:00 1290.97 56.0 0.00 -- 17.0 86.0
01/19/2019 19:00 1290.98 57.0 0.00 -- 17.8 78.0
01/19/2019 18:00 1290.98 57.0 0.00 -- 18.0 84.0
01/19/2019 17:00 1290.98 57.0 0.00 -- 18.6 77.0
01/19/2019 16:00 1290.99 57.0 0.00 -- 21.4 57.0
01/19/2019 15:00 1291.01 58.0 0.00 -- 22.1 57.0
01/19/2019 14:00 1291.01 58.0 0.00 -- 23.3 49.0
01/19/2019 13:00 1291.00 58.0 0.00 -- 22.1 50.0
01/19/2019 12:00 1291.02 58.0 0.00 -- 20.8 55.0
01/19/2019 11:00 1291.01 58.0 0.00 -- 19.9 60.0
01/19/2019 10:00 1291.02 59.0 0.00 -- 17.4 66.0
01/19/2019 09:00 1291.03 59.0 0.00 -- 16.3 72.0
01/19/2019 08:00 1291.03 59.0 0.00 -- 14.3 89.0
01/19/2019 07:00 1291.04 60.0 0.00 -- 12.7 92.0
01/19/2019 06:00 1291.05 60.0 0.00 -- 14.2 90.0
01/19/2019 05:00 1291.05 60.0 0.00 -- 16.6 85.0
01/19/2019 04:00 1291.06 61.0 0.00 -- 14.9 87.0
01/19/2019 03:00 1291.06 61.0 0.00 -- 16.9 83.0
01/19/2019 02:00 1291.07 61.0 0.00 -- 19.5 72.0
01/19/2019 01:00 1291.08 61.0 0.00 -- 20.2 71.0
01/19/2019 00:00 1291.08 62.0 0.00 0.00 23.3 66.0
01/18/2019 23:00 1291.08 62.0 0.00 -- 24.5 66.0
01/18/2019 22:00 1291.08 62.0 0.00 -- 26.8 61.0
01/18/2019 21:00 1291.09 62.0 0.00 -- 27.8 67.0
01/18/2019 20:00 1291.10 62.0 0.00 -- 27.5 79.0
01/18/2019 19:00 1291.10 62.0 0.00 -- 25.6 86.0
01/18/2019 18:00 1291.10 63.0 0.00 -- 25.7 85.0
01/18/2019 17:00 1291.11 63.0 0.00 -- 25.9 86.0
01/18/2019 16:00 1291.11 63.0 0.00 -- 26.3 85.0
01/18/2019 15:00 1291.12 64.0 0.00 -- 27.2 82.0
01/18/2019 14:00 1291.12 64.0 0.00 -- 27.4 78.0
01/18/2019 13:00 1291.13 64.0 0.00 -- 27.3 78.0
01/18/2019 12:00 1291.13 64.0 0.00 -- 26.0 78.0
01/18/2019 11:00 1291.15 65.0 0.00 -- 22.6 74.0
01/18/2019 10:00 1291.15 65.0 0.00 -- 19.3 68.0
01/18/2019 09:00 1291.16 65.0 0.00 -- 16.1 66.0
01/18/2019 08:00 1291.16 66.0 0.00 -- 14.6 66.0
01/18/2019 07:00 1291.16 66.0 0.00 -- 13.9 64.0
01/18/2019 06:00 1291.18 66.0 0.00 -- 13.6 69.0
01/18/2019 05:00 1291.18 66.0 0.00 -- 12.7 67.0
01/18/2019 04:00 1291.19 67.0 0.00 -- 12.9 66.0
01/18/2019 03:00 1291.20 67.0 0.00 -- 12.8 58.0
01/18/2019 02:00 1291.20 68.0 0.00 -- 12.7 60.0
01/18/2019 01:00 1291.20 68.0 0.00 -- 12.6 61.0
01/18/2019 00:00 1291.21 68.0 0.00 0.00 12.4 60.0
01/17/2019 23:00 1291.22 69.0 0.00 -- 12.0 61.0
01/17/2019 22:00 1291.23 69.0 0.00 -- 11.5 67.0
01/17/2019 21:00 1291.24 70.0 0.00 -- 11.4 65.0
01/17/2019 20:00 1291.24 70.0 0.00 -- 11.1 65.0
01/17/2019 19:00 1291.26 70.0 0.00 -- 12.5 60.0
01/17/2019 18:00 1291.26 70.0 0.00 -- 12.2 59.0
01/17/2019 17:00 1291.27 71.0 0.00 -- 13.9 55.0
01/17/2019 16:00 1291.28 72.0 0.00 -- 17.5 28.0
01/17/2019 15:00 1291.28 72.0 0.00 -- 17.7 26.0
01/17/2019 14:00 1291.28 72.0 0.00 -- 18.2 28.0
01/17/2019 13:00 1291.28 73.0 0.00 -- 17.3 27.0
01/17/2019 12:00 1291.29 72.0 0.00 -- 14.8 30.0
01/17/2019 11:00 1291.30 73.0 0.00 -- 11.6 42.0
01/17/2019 10:00 1291.30 73.0 0.00 -- 7.9 47.0
01/17/2019 09:00 1291.30 -- 0.04 -- 3.7 62.0
01/17/2019 08:00 1291.50 73.0 0.00 -- -0.7 80.0
01/17/2019 07:00 1291.49 1.0 0.00 -- -0.4 81.0
01/17/2019 06:00 1291.49 1.0 0.00 -- 0.1 80.0
01/17/2019 05:00 1291.48 1.0 0.00 -- 1.6 80.0
01/17/2019 04:00 1291.48 1.0 0.00 -- 3.7 75.0
01/17/2019 03:00 1291.47 1.0 0.00 -- 7.0 67.0
01/17/2019 02:00 1291.47 1.0 0.00 -- 9.6 67.0
01/17/2019 01:00 1291.47 1.0 0.00 -- 12.3 58.0
01/17/2019 00:00 1291.46 1.0 0.00 0.04 15.0 54.0
01/16/2019 23:00 1291.47 1.0 0.00 -- 18.0 53.0
01/16/2019 22:00 1291.46 1.0 0.00 -- 21.1 56.0
01/16/2019 21:00 1291.46 1.0 0.00 -- 23.8 55.0
01/16/2019 20:00 1291.44 1.0 0.00 -- 26.6 57.0
01/16/2019 19:00 1291.44 1.0 0.00 -- 27.4 64.0
01/16/2019 18:00 1291.43 1.0 0.00 -- 28.0 71.0
01/16/2019 17:00 1291.42 1.0 0.00 -- 27.9 67.0
01/16/2019 16:00 1291.41 1.0 0.00 -- 28.6 64.0
01/16/2019 15:00 1291.41 1.0 0.00 -- 29.5 61.0
01/16/2019 14:00 1291.40 1.0 0.00 -- 28.5 63.0
01/16/2019 13:00 1291.38 1.0 0.00 -- 28.0 69.0
01/16/2019 12:00 1291.38 1.0 0.00 -- 26.5 71.0
01/16/2019 11:00 1291.39 1.0 0.00 -- 23.3 80.0
01/16/2019 10:00 1291.38 1.0 0.00 -- 21.4 84.0
01/16/2019 09:00 1291.37 1.0 0.00 -- 20.4 87.0
01/16/2019 08:00 1291.37 1.0 0.00 -- 19.6 89.0
01/16/2019 07:00 1291.35 1.0 0.00 -- 20.2 89.0
01/16/2019 06:00 1291.35 1.0 0.00 -- 19.3 96.0
01/16/2019 05:00 1291.35 1.0 0.00 -- 18.1 98.0
01/16/2019 04:00 1291.34 1.0 0.00 -- 16.8 98.0
01/16/2019 03:00 1291.34 1.0 0.00 -- 14.4 97.0
01/16/2019 02:00 1291.33 1.0 0.00 -- 13.3 98.0
01/16/2019 01:00 1291.33 1.0 0.00 -- 14.7 98.0
01/16/2019 00:00 1291.32 1.0 0.00 0.00 16.8 95.0
01/15/2019 23:00 1291.32 1.0 0.00 -- 18.2 94.0
01/15/2019 22:00 1291.31 1.0 0.00 -- 17.1 93.0
01/15/2019 21:00 1291.30 1.0 0.00 -- 16.2 95.0
01/15/2019 20:00 1291.30 1.0 0.00 -- 15.3 96.0
01/15/2019 19:00 1291.29 1.0 0.00 -- 16.7 94.0
01/15/2019 18:00 1291.28 1.0 0.00 -- 18.6 88.0
01/15/2019 17:00 1291.28 1.0 0.00 -- 22.2 75.0
01/15/2019 16:00 1291.27 1.0 0.00 -- 24.4 65.0
01/15/2019 15:00 1291.27 1.0 0.00 -- 24.6 65.0
01/15/2019 14:00 1291.26 1.0 0.00 -- 24.7 63.0
01/15/2019 13:00 1291.25 1.0 0.00 -- 24.5 67.0
01/15/2019 12:00 1291.24 1.0 0.00 -- 24.3 67.0
01/15/2019 11:00 1291.24 1.0 0.00 -- 21.9 72.0
01/15/2019 10:00 1291.23 1.0 0.00 -- 20.7 75.0
01/15/2019 09:00 1291.22 1.0 0.00 -- 18.0 80.0
01/15/2019 08:00 1291.22 1.0 0.00 -- 15.0 78.0
01/15/2019 07:00 1291.22 1.0 0.00 -- 9.9 76.0
01/15/2019 06:00 1291.21 1.0 0.00 -- 10.1 79.0
01/15/2019 05:00 1291.20 1.0 0.00 -- 9.4 76.0
01/15/2019 04:00 1291.20 1.0 0.00 -- 9.8 73.0
01/15/2019 03:00 1291.19 1.0 0.00 -- 12.0 65.0
01/15/2019 02:00 1291.18 1.0 0.00 -- 9.9 73.0
01/15/2019 01:00 1291.18 1.0 0.00 -- 8.9 81.0
01/15/2019 00:00 1291.18 1.0 0.00 0.00 9.8 80.0
01/14/2019 23:00 1291.17 1.0 0.00 -- 13.1 72.0
01/14/2019 22:00 1291.16 1.0 0.00 -- 16.7 57.0
01/14/2019 21:00 1291.15 1.0 0.00 -- 13.9 72.0
01/14/2019 20:00 1291.14 1.0 0.00 -- 14.2 77.0
01/14/2019 19:00 1291.14 1.0 0.00 -- 15.2 75.0
01/14/2019 18:00 1291.13 1.0 0.00 -- 16.3 74.0
01/14/2019 17:00 1291.12 1.0 0.00 -- 18.9 61.0
01/14/2019 16:00 1291.12 1.0 0.00 -- 22.4 59.0
01/14/2019 15:00 1291.11 1.0 0.00 -- 23.9 52.0
01/14/2019 14:00 1291.11 1.0 0.00 -- 26.0 49.0
01/14/2019 13:00 1291.09 1.0 0.00 -- 26.7 46.0
01/14/2019 12:00 1291.06 1.0 0.00 -- 23.4 57.0
01/14/2019 11:00 1291.08 1.0 0.00 -- 19.1 68.0
01/14/2019 10:00 1290.96 62.0 0.00 -- 8.6 85.0
01/14/2019 09:00 1290.96 56.0 0.00 -- -0.3 81.0
01/14/2019 08:00 1290.97 56.0 0.00 -- -5.4 78.0
01/14/2019 07:00 1290.99 56.0 0.00 -- -5.7 80.0
01/14/2019 06:00 1290.98 57.0 0.00 -- -5.2 81.0
01/14/2019 05:00 1290.98 57.0 0.00 -- -4.5 82.0
01/14/2019 04:00 1290.99 57.0 0.00 -- -3.9 83.0
01/14/2019 03:00 1290.99 57.0 0.00 -- -4.1 79.0
01/14/2019 02:00 1291.00 57.0 0.00 -- -3.1 81.0
01/14/2019 01:00 1291.00 57.0 0.00 -- -2.0 83.0
01/14/2019 00:00 1291.00 58.0 0.00 0.00 -1.2 83.0
01/13/2019 23:00 1291.01 58.0 0.00 -- 0.4 85.0
01/13/2019 22:00 1291.01 58.0 0.00 -- 1.1 83.0
01/13/2019 21:00 1291.01 58.0 0.00 -- 3.0 87.0
01/13/2019 20:00 1291.02 59.0 0.00 -- 4.8 88.0
01/13/2019 19:00 1291.02 59.0 0.00 -- 7.4 86.0
01/13/2019 18:00 1291.03 59.0 0.00 -- 10.7 80.0
01/13/2019 17:00 1291.03 59.0 0.00 -- 13.6 74.0
01/13/2019 16:00 1291.03 59.0 0.00 -- 18.0 65.0
01/13/2019 15:00 1291.03 59.0 0.00 -- 18.9 58.0
01/13/2019 14:00 1291.04 59.0 0.00 -- 20.3 55.0
01/13/2019 13:00 1291.03 59.0 0.00 -- 19.6 54.0
01/13/2019 12:00 1291.02 59.0 0.00 -- 16.2 56.0
01/13/2019 11:00 1291.04 59.0 0.00 -- 12.1 59.0
01/13/2019 10:00 1291.04 60.0 0.00 -- 9.0 60.0
01/13/2019 09:00 1291.04 60.0 0.00 -- 5.3 63.0
01/13/2019 08:00 1291.05 60.0 0.00 -- -0.4 77.0
01/13/2019 07:00 1291.05 60.0 0.00 -- 1.6 73.0
01/13/2019 06:00 1291.06 60.0 0.00 -- 2.7 70.0
01/13/2019 05:00 1291.07 61.0 0.00 -- 3.8 67.0
01/13/2019 04:00 1291.07 61.0 0.00 -- 3.8 66.0
01/13/2019 03:00 1291.06 61.0 0.00 -- 4.7 67.0
01/13/2019 02:00 1291.07 61.0 0.00 -- 4.9 69.0
01/13/2019 01:00 1291.08 61.0 0.00 -- 5.4 69.0
01/13/2019 00:00 1291.08 61.0 0.00 0.00 5.0 70.0
01/12/2019 23:00 1291.09 61.0 0.00 -- 5.6 70.0
01/12/2019 22:00 1291.09 61.0 0.00 -- 3.2 76.0
01/12/2019 21:00 1291.10 62.0 0.00 -- 4.9 71.0
01/12/2019 20:00 1291.10 62.0 0.00 -- 6.0 67.0
01/12/2019 19:00 1291.09 63.0 0.00 -- 7.8 61.0
01/12/2019 18:00 1291.09 63.0 0.00 -- 8.2 64.0
01/12/2019 17:00 1291.10 63.0 0.00 -- 10.7 53.0
01/12/2019 16:00 1291.11 63.0 0.00 -- 12.6 47.0
01/12/2019 15:00 1291.12 63.0 0.00 -- 13.8 52.0
01/12/2019 14:00 1291.13 63.0 0.00 -- 14.8 42.0
01/12/2019 13:00 1291.11 63.0 0.00 -- 15.3 42.0
01/12/2019 12:00 1291.12 63.0 0.00 -- 11.5 50.0
01/12/2019 11:00 1291.12 64.0 0.00 -- 8.8 53.0
01/12/2019 10:00 1291.13 64.0 0.00 -- 6.3 56.0
01/12/2019 09:00 1291.13 64.0 0.00 -- 3.7 60.0
01/12/2019 08:00 1291.13 64.0 0.00 -- -4.0 78.0
01/12/2019 07:00 1291.14 64.0 0.00 -- -5.3 78.0
01/12/2019 06:00 1291.14 65.0 0.00 -- -4.3 78.0
01/12/2019 05:00 1291.15 65.0 0.00 -- -3.8 78.0
01/12/2019 04:00 1291.16 65.0 0.00 -- -3.8 76.0
01/12/2019 03:00 1291.15 65.0 0.00 -- -1.5 72.0
01/12/2019 02:00 1291.16 66.0 0.00 -- 0.4 69.0
01/12/2019 01:00 1291.16 66.0 0.00 -- 0.8 64.0
01/12/2019 00:00 1291.17 66.0 0.00 0.00 0.5 64.0
01/11/2019 23:00 1291.18 66.0 0.00 -- 1.3 65.0
01/11/2019 22:00 1291.17 66.0 0.00 -- 1.7 68.0
01/11/2019 21:00 1291.18 67.0 0.00 -- 2.9 60.0
01/11/2019 20:00 1291.18 67.0 0.00 -- 3.6 61.0
01/11/2019 19:00 1291.20 67.0 0.00 -- 4.9 59.0
01/11/2019 18:00 1291.19 67.0 0.00 -- 6.5 57.0
01/11/2019 17:00 1291.20 67.0 0.00 -- 8.7 53.0
01/11/2019 16:00 1291.20 68.0 0.00 -- 10.6 50.0
01/11/2019 15:00 1291.20 68.0 0.00 -- 12.0 51.0
01/11/2019 14:00 1291.21 68.0 0.00 -- 14.0 51.0
01/11/2019 13:00 1291.20 68.0 0.00 -- 14.0 53.0
01/11/2019 12:00 1291.20 69.0 0.00 -- 13.1 61.0
01/11/2019 11:00 1291.20 69.0 0.00 -- 11.6 65.0
01/11/2019 10:00 1291.23 69.0 0.00 -- 10.9 68.0
01/11/2019 09:00 1291.22 69.0 0.00 -- 10.2 70.0
01/11/2019 08:00 1291.23 69.0 0.00 -- 10.1 75.0
01/11/2019 07:00 1291.23 70.0 0.00 -- 10.2 74.0
01/11/2019 06:00 1291.23 69.0 0.00 -- 9.8 76.0
01/11/2019 05:00 1291.24 70.0 0.00 -- 10.9 76.0
01/11/2019 04:00 1291.25 70.0 0.00 -- 11.6 80.0
01/11/2019 03:00 1291.25 70.0 0.00 -- 12.8 79.0
01/11/2019 02:00 1291.25 70.0 0.00 -- 13.3 76.0
01/11/2019 01:00 1291.26 71.0 0.00 -- 13.2 78.0
01/11/2019 00:00 1291.26 71.0 0.00 0.00 12.6 81.0
01/10/2019 23:00 1291.26 71.0 0.00 -- 12.7 79.0
01/10/2019 22:00 1291.28 71.0 0.00 -- 13.4 77.0
01/10/2019 21:00 1291.29 71.0 0.00 -- 13.7 76.0
01/10/2019 20:00 1291.28 73.0 0.00 -- 14.8 78.0
01/10/2019 19:00 1291.30 73.0 0.00 -- 16.3 78.0
01/10/2019 18:00 1291.29 72.0 0.00 -- 17.8 76.0
01/10/2019 17:00 1291.30 73.0 0.00 -- 18.7 79.0
01/10/2019 16:00 1291.30 73.0 0.00 -- 20.1 80.0
01/10/2019 15:00 1291.34 73.0 0.00 -- 21.2 73.0
01/10/2019 14:00 1291.30 74.0 0.00 -- 23.0 74.0
01/10/2019 13:00 1291.31 74.0 0.00 -- 22.2 76.0
01/10/2019 12:00 1291.30 73.0 0.00 -- 22.8 77.0
01/10/2019 11:00 1291.33 74.0 0.00 -- 22.3 82.0
01/10/2019 10:00 1291.32 74.0 0.00 -- 22.8 84.0
01/10/2019 09:00 1291.33 74.0 0.00 -- 22.9 83.0
01/10/2019 08:00 1291.33 74.0 0.00 -- 22.4 89.0
01/10/2019 07:00 1291.34 74.0 0.00 -- 22.5 92.0
01/10/2019 06:00 1291.34 75.0 0.00 -- 23.5 94.0
01/10/2019 05:00 1291.34 75.0 0.00 -- 24.0 91.0
01/10/2019 04:00 1291.34 75.0 0.00 -- 23.9 99.0
01/10/2019 03:00 1291.33 76.0 0.00 -- 24.2 92.0
01/10/2019 02:00 1291.34 75.0 0.00 -- 24.5 94.0
01/10/2019 01:00 1291.34 75.0 0.00 -- 24.6 92.0
01/10/2019 00:00 1291.35 75.0 0.00 0.00 24.8 93.0
01/09/2019 23:00 1291.34 75.0 0.00 -- 25.4 90.0
01/09/2019 22:00 1291.35 76.0 0.00 -- 25.9 90.0
01/09/2019 21:00 1291.35 76.0 0.00 -- 26.6 95.0
01/09/2019 20:00 1291.37 76.0 0.00 -- 27.8 95.0
01/09/2019 19:00 1291.36 76.0 0.00 -- 28.8 99.0
01/09/2019 18:00 1291.37 76.0 0.00 -- 30.0 99.0
01/09/2019 17:00 1291.38 77.0 0.00 -- 30.3 99.0
01/09/2019 16:00 1291.38 77.0 0.00 -- 30.8 99.0
01/09/2019 15:00 1291.39 77.0 0.00 -- 31.0 99.0
01/09/2019 14:00 1291.39 77.0 0.00 -- 30.7 99.0
01/09/2019 13:00 1291.38 78.0 0.00 -- 30.3 100.0
01/09/2019 12:00 1291.39 79.0 0.00 -- 30.6 100.0
01/09/2019 11:00 1291.39 78.0 0.00 -- 30.8 100.0
01/09/2019 10:00 1291.39 78.0 0.00 -- 30.9 100.0
01/09/2019 09:00 1291.38 78.0 0.00 -- 30.7 100.0
01/09/2019 08:00 1291.38 78.0 0.00 -- 30.4 100.0
01/09/2019 07:00 1291.39 78.0 0.00 -- 29.9 100.0
01/09/2019 06:00 1291.39 78.0 0.00 -- 30.0 100.0
01/09/2019 05:00 1291.40 78.0 0.00 -- 30.0 100.0
01/09/2019 04:00 1291.39 78.0 0.00 -- 29.3 100.0
01/09/2019 03:00 1291.38 77.0 0.00 -- 28.7 100.0
01/09/2019 02:00 1291.38 78.0 0.00 -- 28.7 100.0
01/09/2019 01:00 1291.39 78.0 0.00 -- 28.5 100.0
01/09/2019 00:00 1291.39 78.0 0.00 0.00 28.4 100.0
01/08/2019 23:00 1291.40 78.0 0.00 -- 28.4 100.0
01/08/2019 22:00 1291.40 78.0 0.00 -- 28.4 100.0
01/08/2019 21:00 1291.41 79.0 0.00 -- 28.1 100.0
01/08/2019 20:00 1291.40 79.0 0.00 -- 25.7 100.0
01/08/2019 19:00 1291.40 78.0 0.00 -- 25.0 100.0
01/08/2019 18:00 1291.41 79.0 0.00 -- 24.6 100.0
01/08/2019 17:00 1291.42 79.0 0.00 -- 24.9 100.0
01/08/2019 16:00 1291.42 79.0 0.00 -- 26.0 100.0
01/08/2019 15:00 1291.42 79.0 0.00 -- 27.7 100.0
01/08/2019 14:00 1291.43 79.0 0.00 -- 29.2 100.0
01/08/2019 13:00 1291.42 80.0 0.00 -- 29.4 100.0
01/08/2019 12:00 1291.42 80.0 0.00 -- 26.4 99.0
01/08/2019 11:00 1291.44 80.0 0.00 -- 21.9 99.0
01/08/2019 10:00 1291.44 81.0 0.00 -- 21.4 99.0
01/08/2019 09:00 1291.45 81.0 0.00 -- 21.4 99.0
01/08/2019 08:00 1291.45 81.0 0.00 -- 19.8 99.0
01/08/2019 07:00 1291.45 81.0 0.00 -- 19.2 98.0
01/08/2019 06:00 1291.47 81.0 0.00 -- 18.1 96.0
01/08/2019 05:00 1291.46 82.0 0.00 -- 16.6 96.0
01/08/2019 04:00 1291.47 82.0 0.00 -- 16.0 92.0
01/08/2019 03:00 1291.47 82.0 0.00 -- 15.8 84.0
01/08/2019 02:00 1291.47 82.0 0.00 -- 18.4 46.0
01/08/2019 01:00 1291.48 83.0 0.00 -- 17.8 49.0
01/08/2019 00:00 1291.49 83.0 0.00 0.00 17.3 49.0
01/07/2019 23:00 1291.48 83.0 0.00 -- 16.9 47.0
01/07/2019 22:00 1291.50 84.0 0.00 -- 16.6 45.0
01/07/2019 21:00 1291.50 84.0 0.00 -- 15.9 46.0
01/07/2019 20:00 1291.51 84.0 0.00 -- 15.5 48.0
01/07/2019 19:00 1291.50 84.0 0.00 -- 15.2 47.0
01/07/2019 18:00 1291.51 85.0 0.00 -- 15.4 41.0
01/07/2019 17:00 1291.52 85.0 0.00 -- 15.5 39.0
01/07/2019 16:00 1291.54 85.0 0.00 -- 16.3 38.0
01/07/2019 15:00 1291.54 86.0 0.00 -- 16.8 33.0
01/07/2019 14:00 1291.54 86.0 0.00 -- 16.6 32.0
01/07/2019 13:00 1291.54 86.0 0.00 -- 15.8 39.0
01/07/2019 12:00 1291.55 86.0 0.00 -- 15.1 34.0
01/07/2019 11:00 1291.55 87.0 0.00 -- 12.8 39.0
01/07/2019 10:00 1291.56 87.0 0.00 -- 10.6 45.0
01/07/2019 09:00 1291.57 87.0 0.00 -- 8.3 53.0
01/07/2019 08:00 1291.57 87.0 0.00 -- 7.0 52.0
01/07/2019 07:00 1291.56 88.0 0.00 -- 7.3 52.0
01/07/2019 06:00 1291.58 87.0 0.00 -- 7.6 54.0
01/07/2019 05:00 1291.59 88.0 0.00 -- 8.4 52.0
01/07/2019 04:00 1291.63 90.0 0.00 -- 9.1 54.0
01/07/2019 03:00 1291.62 91.0 0.00 -- 9.8 61.0
01/07/2019 02:00 1291.63 91.0 0.00 -- 10.6 60.0
01/07/2019 01:00 1291.64 92.0 0.00 -- 11.7 60.0
01/07/2019 00:00 1291.65 91.0 0.00 0.00 13.2 63.0
01/06/2019 23:00 1291.65 92.0 0.00 -- 14.1 67.0
01/06/2019 22:00 1291.66 92.0 0.00 -- 15.3 57.0
01/06/2019 21:00 1291.66 93.0 0.00 -- 18.3 58.0
01/06/2019 20:00 1291.66 93.0 0.00 -- 19.6 53.0
01/06/2019 19:00 1291.68 93.0 0.00 -- 20.2 51.0
01/06/2019 18:00 1291.66 93.0 0.00 -- 22.1 51.0
01/06/2019 17:00 1291.66 93.0 0.01 -- 23.9 61.0
01/06/2019 16:00 1291.68 94.0 0.00 -- 25.9 61.0
01/06/2019 15:00 1291.68 95.0 0.00 -- 29.6 65.0
01/06/2019 14:00 1291.70 94.0 0.00 -- 31.2 71.0
01/06/2019 13:00 1291.68 95.0 0.00 -- 33.3 72.0
01/06/2019 12:00 1291.69 94.0 0.00 -- 33.2 75.0
01/06/2019 11:00 1291.68 94.0 0.00 -- 32.6 79.0
01/06/2019 10:00 1291.69 94.0 0.00 -- 31.3 82.0
01/06/2019 09:00 1291.69 94.0 0.00 -- 30.3 85.0
01/06/2019 08:00 1291.69 94.0 0.00 -- 28.0 99.0
01/06/2019 07:00 1291.70 94.0 0.00 -- 29.1 90.0
01/06/2019 06:00 1291.70 95.0 0.00 -- 29.4 87.0
01/06/2019 05:00 1291.70 96.0 0.00 -- 28.3 99.0
01/06/2019 04:00 1291.71 95.0 0.00 -- 28.1 99.0
01/06/2019 03:00 1291.72 96.0 0.00 -- 27.7 99.0
01/06/2019 02:00 1291.72 95.0 0.00 -- 27.6 99.0
01/06/2019 01:00 1291.72 96.0 0.00 -- 28.7 99.0
01/06/2019 00:00 1291.72 96.0 0.00 0.01 29.1 99.0
01/05/2019 23:00 1291.73 97.0 0.00 -- 28.7 99.0
01/05/2019 22:00 1291.74 96.0 0.00 -- 28.6 100.0
01/05/2019 21:00 1291.74 96.0 0.00 -- 28.6 100.0
01/05/2019 20:00 1291.74 97.0 0.00 -- 29.2 100.0
01/05/2019 19:00 1291.74 97.0 0.00 -- 29.3 100.0
01/05/2019 18:00 1291.75 97.0 0.00 -- 29.7 100.0
01/05/2019 17:00 1291.74 97.0 0.00 -- 30.6 100.0
01/05/2019 16:00 1291.75 98.0 0.00 -- 30.9 100.0
01/05/2019 15:00 1291.75 98.0 0.00 -- 31.0 100.0
01/05/2019 14:00 1291.77 98.0 0.01 -- 31.0 100.0
01/05/2019 13:00 1291.77 99.0 0.07 -- 31.3 100.0
01/05/2019 12:00 1291.76 98.0 0.03 -- 31.0 100.0
01/05/2019 11:00 1291.76 99.0 0.02 -- 31.8 99.0
01/05/2019 10:00 1291.78 98.0 0.04 -- 31.6 100.0
01/05/2019 09:00 1291.77 99.0 0.01 -- 30.9 100.0
01/05/2019 08:00 1291.76 98.0 0.00 -- 29.9 99.0
01/05/2019 07:00 1291.78 99.0 0.00 -- 29.9 96.0
01/05/2019 06:00 1291.78 99.0 0.00 -- 28.7 99.0
01/05/2019 05:00 1291.79 99.0 0.00 -- 28.0 99.0
01/05/2019 04:00 1291.79 100.0 0.00 -- 27.6 99.0
01/05/2019 03:00 1291.79 100.0 0.00 -- 29.0 93.0
01/05/2019 02:00 1291.80 101.0 0.00 -- 30.2 88.0
01/05/2019 01:00 1291.80 100.0 0.00 -- 30.0 84.0
01/05/2019 00:00 1291.80 101.0 0.00 0.18 28.7 93.0
01/04/2019 23:00 1291.81 101.0 0.00 -- 27.4 97.0
01/04/2019 22:00 1291.82 101.0 0.00 -- 27.2 97.0
01/04/2019 21:00 1291.83 102.0 0.00 -- 27.5 92.0
01/04/2019 20:00 1291.83 102.0 0.00 -- 28.7 86.0
01/04/2019 19:00 1291.83 102.0 0.00 -- 32.6 70.0
01/04/2019 18:00 1291.84 102.0 0.00 -- 32.8 69.0
01/04/2019 17:00 1291.84 103.0 0.00 -- 34.0 65.0
01/04/2019 16:00 1291.85 103.0 0.01 -- 34.5 63.0
01/04/2019 15:00 1291.85 104.0 0.02 -- 35.9 58.0
01/04/2019 14:00 1291.86 104.0 0.00 -- 36.0 57.0
01/04/2019 13:00 1291.86 102.0 0.00 -- 35.8 57.0
01/04/2019 12:00 1291.86 104.0 0.00 -- 33.2 63.0
01/04/2019 11:00 1291.87 105.0 0.00 -- 30.5 68.0
01/04/2019 10:00 1291.88 -- 0.00 -- 28.8 72.0
01/04/2019 09:00 1291.88 105.0 0.00 -- 26.9 81.0
01/04/2019 08:00 1291.89 105.0 0.00 -- 24.7 88.0
01/04/2019 07:00 1291.90 106.0 0.00 -- 24.8 93.0
01/04/2019 06:00 1291.90 106.0 0.00 -- 26.1 82.0
01/04/2019 05:00 1291.91 106.0 0.00 -- 27.0 79.0
01/04/2019 04:00 1291.92 107.0 0.00 -- 26.2 86.0
01/04/2019 03:00 1291.92 107.0 0.00 -- 25.6 91.0
01/04/2019 02:00 1291.93 107.0 0.00 -- 25.5 95.0
01/04/2019 01:00 1291.93 108.0 0.00 -- 26.8 76.0
01/04/2019 00:00 1291.94 108.0 0.00 0.03 27.1 78.0
01/03/2019 23:00 1291.95 108.0 0.00 -- 27.1 82.0
01/03/2019 22:00 1291.95 109.0 0.00 -- 27.0 89.0
01/03/2019 21:00 1291.95 109.0 0.00 -- 26.6 94.0
01/03/2019 20:00 1291.96 110.0 0.00 -- 26.9 92.0
01/03/2019 19:00 1291.97 110.0 0.00 -- 27.0 86.0
01/03/2019 18:00 1291.97 110.0 0.00 -- 28.2 75.0
01/03/2019 17:00 1291.98 110.0 0.01 -- 29.4 74.0
01/03/2019 16:00 1291.98 111.0 0.00 -- 29.6 85.0
01/03/2019 15:00 1291.98 111.0 0.00 -- 30.4 84.0
01/03/2019 14:00 1291.99 111.0 0.00 -- 30.9 88.0
01/03/2019 13:00 1291.99 111.0 0.01 -- 31.5 91.0
01/03/2019 12:00 1291.99 111.0 0.00 -- 31.4 92.0
01/03/2019 11:00 1292.00 112.0 0.00 -- 30.9 94.0
01/03/2019 10:00 1292.00 112.0 0.00 -- 28.9 99.0
01/03/2019 09:00 1291.99 112.0 0.00 -- 26.8 99.0
01/03/2019 08:00 1292.01 112.0 0.00 -- 24.7 99.0
01/03/2019 07:00 1292.01 112.0 0.00 -- 24.5 99.0
01/03/2019 06:00 1292.02 113.0 0.00 -- 24.4 99.0
01/03/2019 05:00 1292.02 113.0 0.00 -- 23.5 99.0
01/03/2019 04:00 1292.02 113.0 0.00 -- 23.3 99.0
01/03/2019 03:00 1292.02 113.0 0.00 -- 23.2 96.0
01/03/2019 02:00 1292.02 113.0 0.00 -- 24.7 66.0
01/03/2019 01:00 1292.03 113.0 0.00 -- 23.8 62.0
01/03/2019 00:00 1292.03 114.0 0.00 0.02 22.7 64.0
01/02/2019 23:00 1292.03 114.0 0.00 -- 20.1 78.0
01/02/2019 22:00 1292.04 114.0 0.00 -- 19.5 76.0
01/02/2019 21:00 1292.04 114.0 0.00 -- 18.8 77.0
01/02/2019 20:00 1292.04 115.0 0.00 -- 18.3 74.0
01/02/2019 19:00 1292.05 114.0 0.00 -- 18.0 71.0
01/02/2019 18:00 1292.06 115.0 0.00 -- 19.5 67.0
01/02/2019 17:00 1292.06 115.0 0.00 -- 21.8 56.0
01/02/2019 16:00 1292.06 115.0 0.00 -- 25.1 39.0
01/02/2019 15:00 1292.06 116.0 0.00 -- 26.7 27.0
01/02/2019 14:00 1292.07 115.0 0.00 -- 27.5 24.0
01/02/2019 13:00 1292.04 116.0 0.00 -- 27.6 27.0
01/02/2019 12:00 1292.06 115.0 0.00 -- 24.8 33.0
01/02/2019 11:00 1292.06 114.0 0.00 -- 21.9 46.0
01/02/2019 10:00 1292.05 115.0 0.00 -- 19.6 55.0
01/02/2019 09:00 1292.05 115.0 0.00 -- 17.1 69.0
01/02/2019 08:00 1292.06 115.0 0.00 -- 14.8 78.0
01/02/2019 07:00 1292.07 116.0 0.00 -- 15.8 77.0
01/02/2019 06:00 1292.08 116.0 0.00 -- 16.1 78.0
01/02/2019 05:00 1292.08 116.0 0.00 -- 16.5 85.0
01/02/2019 04:00 1292.08 116.0 0.00 -- 17.2 81.0
01/02/2019 03:00 1292.07 116.0 0.00 -- 17.3 80.0
01/02/2019 02:00 1292.07 117.0 0.00 -- 18.1 74.0
01/02/2019 01:00 1292.08 116.0 0.00 -- 20.0 70.0
01/02/2019 00:00 1292.08 117.0 0.00 0.00 21.2 65.0
01/01/2019 23:00 1292.08 116.0 0.00 -- 22.6 67.0
01/01/2019 22:00 1292.07 116.0 0.00 -- 24.5 64.0
01/01/2019 21:00 1292.08 116.0 0.00 -- 26.1 66.0
01/01/2019 20:00 1292.07 116.0 0.00 -- 27.3 68.0
01/01/2019 19:00 1292.09 116.0 0.00 -- 29.6 71.0
01/01/2019 18:00 1292.08 115.0 0.00 -- 30.4 73.0
01/01/2019 17:00 1292.08 116.0 0.00 -- 31.6 74.0
01/01/2019 16:00 1292.08 116.0 0.00 -- 32.5 75.0
01/01/2019 15:00 1292.06 116.0 0.00 -- 33.6 76.0
01/01/2019 14:00 1292.06 116.0 0.00 -- 35.3 75.0
01/01/2019 13:00 1292.06 116.0 0.00 -- 37.4 72.0
01/01/2019 12:00 1292.07 114.0 0.02 -- 40.0 69.0
01/01/2019 11:00 1292.06 115.0 0.25 -- 41.8 72.0
01/01/2019 10:00 1292.04 114.0 0.19 -- 41.9 93.0
01/01/2019 09:00 1292.04 -- 0.09 -- 36.3 100.0
01/01/2019 08:00 1292.03 114.0 0.00 -- 35.7 100.0
01/01/2019 07:00 1292.03 113.0 0.00 -- 32.9 100.0
01/01/2019 06:00 1292.03 114.0 0.00 -- 30.5 100.0
01/01/2019 05:00 1292.04 115.0 0.00 -- 30.2 100.0
01/01/2019 04:00 1292.04 115.0 0.00 -- 30.2 100.0
01/01/2019 03:00 1292.04 115.0 0.00 -- 30.3 100.0
01/01/2019 02:00 1292.04 114.0 0.00 -- 30.3 100.0
01/01/2019 01:00 1292.05 115.0 0.00 -- 30.4 100.0
01/01/2019 00:00 1292.04 115.0 0.00 0.55 30.2 100.0
12/31/2018 23:00 1292.04 115.0 0.00 -- 30.0 100.0
12/31/2018 22:00 1292.04 -- 0.00 -- 30.2 99.8
12/31/2018 21:00 1292.04 -- 0.00 -- 30.4 99.5
12/31/2018 20:00 1292.04 -- 0.00 -- 30.6 99.3
12/31/2018 19:00 1292.04 -- 0.00 -- 30.8 99.0
12/31/2018 18:00 1292.04 114.0 0.00 -- 32.2 89.0
12/31/2018 17:00 1292.05 114.0 0.00 -- 32.1 90.0
12/31/2018 16:00 1292.04 115.0 0.00 -- 32.2 89.0
12/31/2018 15:00 1292.06 115.0 0.00 -- 32.5 86.0
12/31/2018 14:00 1292.06 115.0 0.00 -- 32.5 79.0
12/31/2018 13:00 1292.07 115.0 0.00 -- 32.5 76.0
12/31/2018 12:00 1292.07 116.0 0.00 -- 31.6 77.0
12/31/2018 11:00 1292.06 116.0 0.00 -- 30.2 81.0
12/31/2018 10:00 1292.08 116.0 0.00 -- 28.2 90.0
12/31/2018 09:00 1292.08 116.0 0.00 -- 26.8 96.0
12/31/2018 08:00 1292.09 117.0 0.00 -- 22.5 99.0
12/31/2018 07:00 1292.10 118.0 0.00 -- 22.1 99.0
12/31/2018 06:00 1292.10 118.0 0.00 -- 22.9 99.0
12/31/2018 05:00 1292.12 118.0 0.00 -- 22.6 98.0
12/31/2018 04:00 1292.12 119.0 0.00 -- 23.4 92.0
12/31/2018 03:00 1292.13 119.0 0.00 -- 24.3 86.0
12/31/2018 02:00 1292.13 119.0 0.00 -- 25.0 83.0
12/31/2018 01:00 1292.13 120.0 0.00 -- 26.3 76.0
12/31/2018 00:00 1292.14 120.0 0.00 0.00 26.2 75.0
12/30/2018 23:00 1292.14 120.0 0.00 -- 25.5 74.0
12/30/2018 22:00 1292.15 120.0 0.00 -- 25.1 74.0
12/30/2018 21:00 1292.16 121.0 0.00 -- 25.2 73.0
12/30/2018 20:00 1292.16 121.0 0.00 -- 25.3 69.0
12/30/2018 19:00 1292.16 122.0 0.00 -- 25.5 65.0
12/30/2018 18:00 1292.17 121.0 0.00 -- 25.8 62.0
12/30/2018 17:00 1292.18 122.0 0.00 -- 26.0 62.0
12/30/2018 16:00 1292.18 122.0 0.00 -- 26.4 57.0
12/30/2018 15:00 1292.18 122.0 0.00 -- 27.1 56.0
12/30/2018 14:00 1292.19 123.0 0.00 -- 27.2 54.0
12/30/2018 13:00 1292.20 124.0 0.00 -- 25.9 51.0
12/30/2018 12:00 1292.19 124.0 0.00 -- 25.8 46.0
12/30/2018 11:00 1292.19 122.0 0.00 -- 22.9 44.0
12/30/2018 10:00 1292.20 123.0 0.00 -- 20.1 52.0
12/30/2018 09:00 1292.20 124.0 0.00 -- 18.7 61.0
12/30/2018 08:00 1292.20 124.0 0.00 -- 17.8 63.0
12/30/2018 07:00 1292.21 124.0 0.00 -- 17.5 64.0
12/30/2018 06:00 1292.22 124.0 0.00 -- 17.1 67.0
12/30/2018 05:00 1292.22 125.0 0.00 -- 16.6 66.0
12/30/2018 04:00 1292.21 125.0 0.00 -- 16.4 68.0
12/30/2018 03:00 1292.22 125.0 0.00 -- 15.9 68.0
12/30/2018 02:00 1292.22 125.0 0.00 -- 16.5 67.0
12/30/2018 01:00 1292.23 125.0 0.00 -- 17.2 70.0
12/30/2018 00:00 1292.24 125.0 0.00 0.00 18.4 67.0
12/29/2018 23:00 1292.24 125.0 0.00 -- 20.0 67.0
12/29/2018 22:00 1292.24 126.0 0.00 -- 22.8 68.0
12/29/2018 21:00 1292.24 126.0 0.00 -- 24.7 70.0
12/29/2018 20:00 1292.25 128.0 0.00 -- 26.7 69.0
12/29/2018 19:00 1292.25 127.0 0.00 -- 29.1 67.0
12/29/2018 18:00 1292.25 126.0 0.00 -- 30.5 72.0
12/29/2018 17:00 1292.26 126.0 0.00 -- 31.8 73.0
12/29/2018 16:00 1292.26 128.0 0.00 -- 34.0 69.0
12/29/2018 15:00 1292.23 126.0 0.00 -- 35.4 67.0
12/29/2018 14:00 1292.25 127.0 0.00 -- 36.3 68.0
12/29/2018 13:00 1292.19 126.0 0.00 -- 37.1 69.0
12/29/2018 12:00 1292.18 123.0 0.00 -- 37.9 68.0
12/29/2018 11:00 1292.10 127.0 0.00 -- 38.7 67.0
12/29/2018 10:00 1292.25 127.0 0.00 -- 38.5 69.0
12/29/2018 09:00 1292.27 127.0 0.00 -- 38.1 71.0
12/29/2018 08:00 1292.25 127.0 0.00 -- 37.5 84.0
12/29/2018 07:00 1292.25 127.0 0.00 -- 38.2 100.0
12/29/2018 06:00 1292.25 126.0 0.00 -- 42.6 100.0
12/29/2018 05:00 1292.25 127.0 0.00 -- 42.4 100.0
12/29/2018 04:00 1292.24 126.0 0.00 -- 41.7 100.0
12/29/2018 03:00 1292.25 126.0 0.00 -- 41.8 100.0
12/29/2018 02:00 1292.25 127.0 0.00 -- 41.1 100.0
12/29/2018 01:00 1292.26 127.0 0.00 -- 42.2 100.0
12/29/2018 00:00 1292.26 127.0 0.00 0.00 42.5 100.0
12/28/2018 23:00 1292.26 128.0 0.01 -- 42.5 100.0
12/28/2018 22:00 1292.27 128.0 0.01 -- 41.5 100.0
12/28/2018 21:00 1292.27 128.0 0.01 -- 41.4 100.0
12/28/2018 20:00 1292.26 128.0 0.00 -- 33.4 100.0
12/28/2018 19:00 1292.28 128.0 0.00 -- 30.3 100.0
12/28/2018 18:00 1292.29 128.0 0.00 -- 30.2 100.0
12/28/2018 17:00 1292.30 129.0 0.00 -- 30.3 100.0
12/28/2018 16:00 1292.30 129.0 0.00 -- 30.3 100.0
12/28/2018 15:00 1292.31 129.0 0.00 -- 30.3 100.0
12/28/2018 14:00 1292.31 130.0 0.00 -- 30.2 100.0
12/28/2018 13:00 1292.32 130.0 0.00 -- 30.4 100.0
12/28/2018 12:00 1292.31 130.0 0.00 -- 30.5 100.0
12/28/2018 11:00 1292.31 131.0 0.00 -- 30.4 100.0
12/28/2018 10:00 1292.33 131.0 0.00 -- 30.2 100.0
12/28/2018 09:00 1292.32 132.0 0.00 -- 30.2 100.0
12/28/2018 08:00 1292.34 131.0 0.00 -- 29.6 100.0
12/28/2018 07:00 1292.34 132.0 0.00 -- 28.0 100.0
12/28/2018 06:00 1292.30 132.0 0.00 -- 26.6 100.0
12/28/2018 05:00 1292.30 130.0 0.00 -- 25.5 99.0
12/28/2018 04:00 1292.29 130.0 0.00 -- 24.6 98.0
12/28/2018 03:00 1292.32 130.0 0.00 -- 24.3 81.0
12/28/2018 02:00 1292.35 133.0 0.00 -- 24.7 66.0
12/28/2018 01:00 1292.36 133.0 0.00 -- 23.8 56.0
12/28/2018 00:00 1292.38 134.0 0.00 0.03 22.5 49.0
12/27/2018 23:00 1292.38 134.0 0.00 -- 22.1 45.0
12/27/2018 22:00 1292.39 135.0 0.00 -- 22.2 45.0
12/27/2018 21:00 1292.41 135.0 0.00 -- 20.2 68.0
12/27/2018 20:00 1292.42 136.0 0.00 -- 19.3 71.0
12/27/2018 19:00 1292.43 137.0 0.00 -- 22.0 59.0
12/27/2018 18:00 1292.44 137.0 0.00 -- 23.5 57.0
12/27/2018 17:00 1292.44 137.0 0.00 -- 23.6 48.0
12/27/2018 16:00 1292.46 139.0 0.00 -- 25.3 38.0
12/27/2018 15:00 1292.47 139.0 0.00 -- 26.8 35.0
12/27/2018 14:00 1292.47 140.0 0.00 -- 26.2 31.0
12/27/2018 13:00 1292.48 141.0 0.00 -- 26.4 32.0
12/27/2018 12:00 1292.49 141.0 0.00 -- 24.1 37.0
12/27/2018 11:00 1292.50 141.0 0.00 -- 21.5 42.0
12/27/2018 10:00 1292.51 142.0 0.00 -- 18.9 54.0
12/27/2018 09:00 1292.52 142.0 0.00 -- 17.3 65.0
12/27/2018 08:00 1292.53 143.0 0.00 -- 16.3 73.0
12/27/2018 07:00 1292.55 144.0 0.00 -- 16.0 76.0
12/27/2018 06:00 1292.55 144.0 0.00 -- 17.4 75.0
12/27/2018 05:00 1292.57 145.0 0.00 -- 19.0 69.0
12/27/2018 04:00 1292.58 146.0 0.00 -- 21.4 72.0
12/27/2018 03:00 1292.60 146.0 0.00 -- 23.7 79.0
12/27/2018 02:00 1292.60 148.0 0.00 -- 26.5 71.0
12/27/2018 01:00 1292.61 147.0 0.00 -- 26.8 73.0
12/27/2018 00:00 1292.63 148.0 0.00 0.00 26.7 77.0
12/26/2018 23:00 1292.63 149.0 0.00 -- 25.8 78.0
12/26/2018 22:00 1292.63 150.0 0.00 -- 25.1 78.0
12/26/2018 21:00 1292.64 150.0 0.00 -- 23.5 81.0
12/26/2018 20:00 1292.65 151.0 0.00 -- 21.2 84.0
12/26/2018 19:00 1292.67 151.0 0.00 -- 20.1 79.0
12/26/2018 18:00 1292.68 152.0 0.00 -- 22.0 71.0
12/26/2018 17:00 1292.70 152.0 0.00 -- 25.1 60.0
12/26/2018 16:00 1292.70 153.0 0.00 -- 26.2 56.0
12/26/2018 15:00 1292.71 154.0 0.00 -- 26.9 51.0
12/26/2018 14:00 1292.73 154.0 0.00 -- 27.6 52.0
12/26/2018 13:00 1292.72 155.0 0.00 -- 26.2 51.0
12/26/2018 12:00 1292.72 156.0 0.00 -- 25.5 53.0
12/26/2018 11:00 1292.75 156.0 0.00 -- 23.2 54.0
12/26/2018 10:00 1292.76 157.0 0.00 -- 20.9 53.0
12/26/2018 09:00 1292.76 158.0 0.00 -- 15.1 59.0
12/26/2018 08:00 1292.77 157.0 0.00 -- 9.7 76.0
12/26/2018 07:00 1292.79 158.0 0.00 -- 9.8 74.0
12/26/2018 06:00 1292.79 159.0 0.00 -- 11.1 70.0
12/26/2018 05:00 1292.81 160.0 0.00 -- 11.0 73.0
12/26/2018 04:00 1292.82 161.0 0.00 -- 11.8 67.0
12/26/2018 03:00 1292.83 161.0 0.00 -- 14.4 60.0
12/26/2018 02:00 1292.84 162.0 0.00 -- 14.7 65.0
12/26/2018 01:00 1292.85 162.0 0.00 -- 15.9 63.0
12/26/2018 00:00 1292.86 163.0 0.00 0.00 17.1 52.0
12/25/2018 23:00 1292.87 163.0 0.00 -- 15.2 69.0
12/25/2018 22:00 1292.88 164.0 0.00 -- 14.2 66.0
12/25/2018 21:00 1292.89 165.0 0.00 -- 14.2 68.0
12/25/2018 20:00 1292.91 166.0 0.00 -- 15.9 62.0
12/25/2018 19:00 1292.91 166.0 0.00 -- 18.6 51.0
12/25/2018 18:00 1292.92 167.0 0.00 -- 20.4 44.0
12/25/2018 17:00 1292.93 167.0 0.00 -- 20.8 42.0
12/25/2018 16:00 1292.95 168.0 0.00 -- 23.3 30.0
12/25/2018 15:00 1292.96 169.0 0.00 -- 24.6 28.0
12/25/2018 14:00 1292.96 168.0 0.00 -- 25.6 24.0
12/25/2018 13:00 1292.96 170.0 0.00 -- 26.1 31.0
12/25/2018 12:00 1292.97 170.0 0.00 -- 24.5 32.0
12/25/2018 11:00 1292.98 169.0 0.00 -- 22.7 47.0
12/25/2018 10:00 1292.98 171.0 0.00 -- 21.4 59.0
12/25/2018 09:00 1293.00 172.0 0.00 -- 19.9 74.0
12/25/2018 08:00 1293.01 172.0 0.00 -- 19.1 78.0
12/25/2018 07:00 1293.03 172.0 0.00 -- 19.9 82.0
12/25/2018 06:00 1293.03 173.0 0.00 -- 20.6 83.0
12/25/2018 05:00 1293.05 174.0 0.00 -- 21.8 82.0
12/25/2018 04:00 1293.06 175.0 0.00 -- 23.1 84.0
12/25/2018 03:00 1293.06 175.0 0.00 -- 23.7 85.0
12/25/2018 02:00 1293.06 176.0 0.00 -- 24.8 80.0
12/25/2018 01:00 1293.08 176.0 0.00 -- 26.0 76.0
12/25/2018 00:00 1293.09 178.0 0.00 0.00 26.8 77.0
12/24/2018 23:00 1293.09 178.0 0.00 -- 27.6 86.0
12/24/2018 22:00 1293.10 178.0 0.00 -- 28.3 90.0
12/24/2018 21:00 1293.12 178.0 0.00 -- 28.3 88.0
12/24/2018 20:00 1293.13 179.0 0.00 -- 28.7 83.0
12/24/2018 19:00 1293.14 180.0 0.00 -- 28.9 80.0
12/24/2018 18:00 1293.14 181.0 0.00 -- 28.6 81.0
12/24/2018 17:00 1293.15 181.0 0.00 -- 27.6 93.0
12/24/2018 16:00 1293.16 182.0 0.00 -- 28.3 92.0
12/24/2018 15:00 1293.17 182.0 0.00 -- 28.8 87.0
12/24/2018 14:00 1293.18 183.0 0.00 -- 29.4 86.0
12/24/2018 13:00 1293.19 184.0 0.00 -- 28.9 85.0
12/24/2018 12:00 1293.20 185.0 0.00 -- 28.7 80.0
12/24/2018 11:00 1293.19 186.0 0.00 -- 28.5 77.0
12/24/2018 10:00 1293.20 187.0 0.00 -- 26.3 81.0
12/24/2018 09:00 1293.22 187.0 0.00 -- 24.3 84.0
12/24/2018 08:00 1293.23 190.0 0.00 -- 23.7 81.0
12/24/2018 07:00 1293.24 190.0 0.00 -- 22.9 82.0
12/24/2018 06:00 1293.25 192.0 0.00 -- 23.5 80.0
12/24/2018 05:00 1293.25 195.0 0.00 -- 23.6 75.0
12/24/2018 04:00 1293.26 194.0 0.00 -- 23.2 75.0
12/24/2018 03:00 1293.27 195.0 0.00 -- 23.4 78.0
12/24/2018 02:00 1293.28 197.0 0.00 -- 22.8 83.0
12/24/2018 01:00 1293.29 198.0 0.00 -- 22.0 86.0
12/24/2018 00:00 1293.31 203.0 0.00 0.00 21.9 83.0
12/23/2018 23:00 1293.31 201.0 0.00 -- 21.3 84.0
12/23/2018 22:00 1293.32 203.0 0.00 -- 20.8 86.0
12/23/2018 21:00 1293.33 205.0 0.00 -- 21.4 80.0
12/23/2018 20:00 1293.33 205.0 0.00 -- 21.2 79.0
12/23/2018 19:00 1293.33 208.0 0.00 -- 23.2 72.0
12/23/2018 18:00 1293.34 208.0 0.00 -- 24.8 66.0
12/23/2018 17:00 1293.34 212.0 0.00 -- 26.6 56.0
12/23/2018 16:00 1293.35 210.0 0.00 -- 27.9 48.0
12/23/2018 15:00 1293.35 214.0 0.00 -- 29.0 44.0
12/23/2018 14:00 1293.36 213.0 0.00 -- 29.5 42.0
12/23/2018 13:00 1293.35 213.0 0.00 -- 29.8 43.0
12/23/2018 12:00 1293.34 210.0 0.00 -- 28.0 46.0
12/23/2018 11:00 1293.34 210.0 0.00 -- 26.2 51.0
12/23/2018 10:00 1293.35 210.0 0.00 -- 24.6 59.0
12/23/2018 09:00 1293.36 211.0 0.00 -- 23.3 61.0
12/23/2018 08:00 1293.34 211.0 0.00 -- 22.7 64.0
12/23/2018 07:00 1293.35 208.0 0.00 -- 22.8 68.0
12/23/2018 06:00 1293.34 210.0 0.00 -- 23.7 66.0
12/23/2018 05:00 1293.33 208.0 0.00 -- 24.7 70.0
12/23/2018 04:00 1293.32 208.0 0.00 -- 25.1 69.0
12/23/2018 03:00 1293.31 205.0 0.00 -- 25.8 68.0
12/23/2018 02:00 1293.30 205.0 0.00 -- 26.2 68.0
12/23/2018 01:00 1293.29 204.0 0.00 -- 26.5 67.0
12/23/2018 00:00 1293.28 200.0 0.00 0.00 27.0 69.0
12/22/2018 23:00 1293.27 199.0 0.00 -- 28.0 68.0
12/22/2018 22:00 1293.25 196.0 0.00 -- 28.7 69.0
12/22/2018 21:00 1293.22 193.0 0.00 -- 29.1 73.0
12/22/2018 20:00 1293.20 190.0 0.00 -- 29.5 72.0
12/22/2018 19:00 1293.18 186.0 0.00 -- 29.8 71.0
12/22/2018 18:00 1293.13 182.0 0.00 -- 29.7 69.0
12/22/2018 17:00 1293.12 181.0 0.00 -- 30.5 68.0
12/22/2018 16:00 1293.07 178.0 0.00 -- 31.4 67.0
12/22/2018 15:00 1293.02 176.0 0.00 -- 32.2 65.0
12/22/2018 14:00 1292.98 174.0 0.00 -- 32.4 74.0
12/22/2018 13:00 1292.92 171.0 0.00 -- 34.2 69.0
12/22/2018 12:00 1292.88 168.0 0.00 -- 34.5 78.0
12/22/2018 11:00 1292.83 164.0 0.00 -- 36.1 84.0
12/22/2018 10:00 1292.79 160.0 0.00 -- 37.1 97.0
12/22/2018 09:00 1292.74 158.0 0.01 -- 39.1 100.0
12/22/2018 08:00 1292.67 156.0 0.00 -- 45.0 100.0
12/22/2018 07:00 1292.63 152.0 0.00 -- 44.3 100.0
12/22/2018 06:00 1292.56 149.0 0.00 -- 44.8 100.0
12/22/2018 05:00 1292.52 144.0 0.00 -- 45.9 100.0
12/22/2018 04:00 1292.46 142.0 0.00 -- 46.2 100.0
12/22/2018 03:00 1292.41 138.0 0.01 -- 44.8 100.0
12/22/2018 02:00 1292.36 135.0 0.00 -- 45.6 100.0
12/22/2018 01:00 1292.32 133.0 0.00 -- 46.0 100.0
12/22/2018 00:00 1292.26 130.0 0.01 0.02 45.8 100.0
12/21/2018 23:00 1292.20 127.0 0.00 -- 47.2 100.0
12/21/2018 22:00 1292.15 123.0 0.00 -- 47.6 100.0
12/21/2018 21:00 1292.11 120.0 0.02 -- 47.6 100.0
12/21/2018 20:00 1292.07 117.0 0.05 -- 46.5 100.0
12/21/2018 19:00 1292.01 114.0 0.04 -- 47.2 100.0
12/21/2018 18:00 1291.98 112.0 0.02 -- 43.2 100.0
12/21/2018 17:00 1291.93 110.0 0.06 -- 51.2 100.0
12/21/2018 16:00 1291.91 107.0 0.04 -- 45.9 100.0
12/21/2018 15:00 1291.85 107.0 0.19 -- 54.8 100.0
12/21/2018 14:00 1291.84 103.0 0.21 -- 36.2 100.0
12/21/2018 13:00 1291.82 103.0 0.20 -- 36.1 100.0
12/21/2018 12:00 1291.80 101.0 0.02 -- 35.5 100.0
12/21/2018 11:00 1291.78 100.0 0.08 -- 36.4 100.0
12/21/2018 10:00 1291.78 100.0 0.02 -- 36.8 100.0
12/21/2018 09:00 1291.77 100.0 0.07 -- 36.1 100.0
12/21/2018 08:00 1291.78 99.0 0.10 -- 33.3 100.0
12/21/2018 07:00 1291.76 99.0 0.14 -- 34.1 100.0
12/21/2018 06:00 1291.76 98.0 0.02 -- 32.3 100.0
12/21/2018 05:00 1291.76 98.0 0.01 -- 31.2 100.0
12/21/2018 04:00 1291.77 98.0 0.00 -- 31.0 100.0
12/21/2018 03:00 1291.78 99.0 0.01 -- 31.2 100.0
12/21/2018 02:00 1291.79 99.0 0.06 -- 31.9 100.0
12/21/2018 01:00 1291.78 99.0 0.11 -- 31.2 100.0
12/21/2018 00:00 1291.78 100.0 0.07 1.48 30.8 100.0
12/20/2018 23:00 1291.78 99.0 0.02 -- 30.2 100.0
12/20/2018 22:00 1291.79 100.0 0.02 -- 29.6 99.0
12/20/2018 21:00 1291.79 100.0 0.00 -- 30.7 84.0
12/20/2018 20:00 1291.80 100.0 0.00 -- 30.2 79.0
12/20/2018 19:00 1291.81 100.0 0.00 -- 29.4 82.0
12/20/2018 18:00 1291.82 102.0 0.00 -- 29.8 81.0
12/20/2018 17:00 1291.83 102.0 0.00 -- 30.2 67.0
12/20/2018 16:00 1291.85 103.0 0.00 -- 31.7 63.0
12/20/2018 15:00 1291.86 103.0 0.00 -- 35.8 51.0
12/20/2018 14:00 1291.86 104.0 0.00 -- 38.3 43.0
12/20/2018 13:00 1291.88 104.0 0.01 -- 39.5 39.0
12/20/2018 12:00 1291.86 105.0 0.01 -- 37.5 42.0
12/20/2018 11:00 1291.89 104.0 0.00 -- 34.3 51.0
12/20/2018 10:00 1291.88 105.0 0.00 -- 31.5 55.0
12/20/2018 09:00 1291.90 106.0 0.00 -- 23.5 77.0
12/20/2018 08:00 1291.93 107.0 0.00 -- 19.3 85.0
12/20/2018 07:00 1291.94 108.0 0.00 -- 19.9 86.0
12/20/2018 06:00 1291.95 109.0 0.00 -- 20.2 82.0
12/20/2018 05:00 1291.96 109.0 0.00 -- 21.5 79.0
12/20/2018 04:00 1291.97 110.0 0.00 -- 22.2 73.0
12/20/2018 03:00 1291.98 111.0 0.00 -- 23.7 65.0
12/20/2018 02:00 1291.99 111.0 0.00 -- 24.5 62.0
12/20/2018 01:00 1292.00 112.0 0.00 -- 25.6 60.0
12/20/2018 00:00 1292.01 112.0 0.00 0.13 27.9 53.0
12/19/2018 23:00 1292.02 113.0 0.00 -- 28.4 49.0
12/19/2018 22:00 1292.04 114.0 0.00 -- 28.9 53.0
12/19/2018 21:00 1292.04 114.0 0.00 -- 28.1 51.0
12/19/2018 20:00 1292.06 115.0 0.00 -- 26.1 56.0
12/19/2018 19:00 1292.08 115.0 0.00 -- 25.5 57.0
12/19/2018 18:00 1292.08 116.0 0.00 -- 25.5 52.0
12/19/2018 17:00 1292.10 117.0 0.00 -- 26.0 48.0
12/19/2018 16:00 1292.11 118.0 0.00 -- 27.7 48.0
12/19/2018 15:00 1292.12 119.0 -- -- 29.9 38.0
12/19/2018 14:00 1292.14 120.0 -- -- 32.9 29.0
12/19/2018 13:00 1292.27 -- 0.00 -- 30.8 32.0
12/19/2018 12:00 1292.27 57.0 0.00 -- 28.8 43.0
12/19/2018 11:00 1292.28 57.0 0.00 -- 24.2 46.0
12/19/2018 10:00 1292.28 58.0 0.00 -- 19.6 55.0
12/19/2018 09:00 1292.28 58.0 0.00 -- 15.7 63.0
12/19/2018 08:00 1292.29 58.0 0.00 -- 12.9 71.0
12/19/2018 07:00 1292.29 59.0 0.00 -- 12.5 71.0
12/19/2018 06:00 1292.29 59.0 0.00 -- 12.6 73.0
12/19/2018 05:00 1292.30 59.0 0.00 -- 11.6 75.0
12/19/2018 04:00 1292.30 59.0 0.00 -- 12.8 74.0
12/19/2018 03:00 1292.30 59.0 0.00 -- 13.5 71.0
12/19/2018 02:00 1292.30 59.0 0.00 -- 12.9 69.0
12/19/2018 01:00 1292.31 59.0 0.00 -- 12.5 72.0
12/19/2018 00:00 1292.31 59.0 0.00 -- 12.6 73.0
12/18/2018 23:00 1292.31 60.0 0.00 -- 12.7 70.0
12/18/2018 22:00 1292.32 60.0 0.00 -- 13.5 68.0
12/18/2018 21:00 1292.32 60.0 0.00 -- 14.3 67.0
12/18/2018 20:00 1292.33 60.0 0.00 -- 14.8 67.0
12/18/2018 19:00 1292.31 61.0 0.00 -- 16.5 66.0
12/18/2018 18:00 1292.34 60.0 0.00 -- 17.8 62.0
12/18/2018 17:00 1292.33 61.0 0.00 -- 18.8 59.0
12/18/2018 16:00 1292.33 61.0 0.00 -- 19.6 57.0
12/18/2018 15:00 1292.34 61.0 0.00 -- 19.8 56.0
12/18/2018 14:00 1292.35 61.0 0.00 -- 20.4 55.0
12/18/2018 13:00 1292.32 61.0 0.00 -- 21.3 55.0
12/18/2018 12:00 1292.33 61.0 0.00 -- 19.5 55.0
12/18/2018 11:00 1292.34 61.0 0.00 -- 17.3 60.0
12/18/2018 10:00 1292.37 61.0 0.00 -- 16.2 59.0
12/18/2018 09:00 1292.36 62.0 0.00 -- 15.3 60.0
12/18/2018 08:00 1292.37 62.0 0.00 -- 14.9 61.0
12/18/2018 07:00 1292.35 62.0 0.00 -- 15.0 60.0
12/18/2018 06:00 1292.37 61.0 0.00 -- 15.1 60.0
12/18/2018 05:00 1292.35 63.0 0.00 -- 15.1 62.0
12/18/2018 04:00 1292.40 62.0 0.00 -- 15.2 61.0
12/18/2018 03:00 1292.37 63.0 0.00 -- 15.8 62.0
12/18/2018 02:00 1292.37 62.0 0.00 -- 17.8 56.0
12/18/2018 01:00 1292.37 64.0 0.00 -- 20.8 62.0
12/18/2018 00:00 1292.36 62.0 0.00 0.00 22.5 66.0
12/17/2018 23:00 1292.36 64.0 0.00 -- 26.9 95.0
12/17/2018 22:00 1292.37 62.0 0.00 -- 29.4 72.0
12/17/2018 21:00 1292.37 63.0 0.00 -- 29.8 78.0
12/17/2018 20:00 1292.36 62.0 0.00 -- 29.9 81.0
12/17/2018 19:00 1292.37 62.0 0.00 -- 30.0 81.0
12/17/2018 18:00 1292.38 62.0 0.00 -- 30.0 76.0
12/17/2018 17:00 1292.37 63.0 0.00 -- 30.5 75.0
12/17/2018 16:00 1292.38 63.0 0.02 -- 31.6 78.0
12/17/2018 15:00 1292.37 63.0 0.00 -- 32.1 86.0
12/17/2018 14:00 1292.37 63.0 0.04 -- 31.3 90.0
12/17/2018 13:00 1292.38 63.0 0.01 -- 31.7 91.0
12/17/2018 12:00 1292.38 63.0 0.00 -- 31.3 96.0
12/17/2018 11:00 1292.37 63.0 0.00 -- 30.8 98.0
12/17/2018 10:00 1292.37 63.0 0.00 -- 29.9 99.0
12/17/2018 09:00 1292.37 63.0 0.00 -- 29.0 99.0
12/17/2018 08:00 1292.37 63.0 0.00 -- 28.4 99.0
12/17/2018 07:00 1292.38 63.0 0.00 -- 28.1 99.0
12/17/2018 06:00 1292.38 63.0 0.00 -- 28.2 99.0
12/17/2018 05:00 1292.38 63.0 0.00 -- 28.3 99.0
12/17/2018 04:00 1292.39 63.0 0.00 -- 28.3 99.0
12/17/2018 03:00 1292.39 63.0 0.00 -- 28.2 99.0
12/17/2018 02:00 1292.39 63.0 0.00 -- 28.2 99.0
12/17/2018 01:00 1292.39 64.0 0.00 -- 28.4 99.0
12/17/2018 00:00 1292.39 64.0 0.00 0.07 28.4 99.0
12/16/2018 23:00 1292.39 64.0 0.00 -- 28.8 99.0
12/16/2018 22:00 1292.38 64.0 0.00 -- 29.2 99.0
12/16/2018 21:00 1292.38 63.0 0.00 -- 29.5 91.0
12/16/2018 20:00 1292.39 63.0 0.00 -- 29.9 86.0
12/16/2018 19:00 1292.39 64.0 0.00 -- 30.1 88.0
12/16/2018 18:00 1292.39 63.0 0.00 -- 30.1 89.0
12/16/2018 17:00 1292.39 64.0 0.00 -- 30.0 91.0
12/16/2018 16:00 1292.39 64.0 0.00 -- 30.3 92.0
12/16/2018 15:00 1292.39 64.0 0.00 -- 30.4 93.0
12/16/2018 14:00 1292.40 64.0 0.00 -- 30.1 86.0
12/16/2018 13:00 1292.39 64.0 0.00 -- 29.7 83.0
12/16/2018 12:00 1292.40 64.0 0.00 -- 28.9 88.0
12/16/2018 11:00 1292.41 64.0 0.00 -- 28.9 85.0
12/16/2018 10:00 1292.41 64.0 0.00 -- 28.9 83.0
12/16/2018 09:00 1292.41 64.0 0.00 -- 28.6 82.0
12/16/2018 08:00 1292.41 64.0 0.00 -- 28.1 81.0
12/16/2018 07:00 1292.41 65.0 0.00 -- 26.9 89.0
12/16/2018 06:00 1292.41 65.0 0.00 -- 25.6 96.0
12/16/2018 05:00 1292.42 65.0 0.00 -- 25.2 99.0
12/16/2018 04:00 1292.42 65.0 0.00 -- 24.4 99.0
12/16/2018 03:00 1292.42 65.0 0.00 -- 24.7 99.0
12/16/2018 02:00 1292.42 65.0 0.00 -- 26.2 99.0
12/16/2018 01:00 1292.42 65.0 0.00 -- 25.9 99.0
12/16/2018 00:00 1292.42 65.0 0.00 0.00 26.2 99.0
12/15/2018 23:00 1292.42 65.0 0.00 -- 26.0 99.0
12/15/2018 22:00 1292.43 65.0 0.00 -- 26.2 99.0
12/15/2018 21:00 1292.43 66.0 0.00 -- 27.3 95.0
12/15/2018 20:00 1292.43 66.0 0.00 -- 30.5 80.0
12/15/2018 19:00 1292.43 66.0 0.00 -- 32.1 78.0
12/15/2018 18:00 1292.43 66.0 0.00 -- 30.9 99.0
12/15/2018 17:00 1292.44 66.0 0.00 -- 32.4 96.0
12/15/2018 16:00 1292.44 66.0 0.00 -- 35.8 84.0
12/15/2018 15:00 1292.44 66.0 0.00 -- 38.9 74.0
12/15/2018 14:00 1292.44 66.0 0.00 -- 41.0 65.0
12/15/2018 13:00 1292.43 66.0 0.00 -- 41.4 67.0
12/15/2018 12:00 1292.44 66.0 0.00 -- 41.7 63.0
12/15/2018 11:00 1292.44 66.0 0.00 -- 43.5 62.0
12/15/2018 10:00 1292.43 66.0 0.00 -- 41.8 74.0
12/15/2018 09:00 1292.44 65.0 0.00 -- 32.8 100.0
12/15/2018 08:00 1292.45 66.0 0.00 -- 32.3 99.0
12/15/2018 07:00 1292.44 67.0 0.00 -- 38.1 95.0
12/15/2018 06:00 1292.45 66.0 0.00 -- 39.0 91.0
12/15/2018 05:00 1292.44 67.0 0.00 -- 38.4 99.0
12/15/2018 04:00 1292.45 67.0 0.00 -- 37.9 99.0
12/15/2018 03:00 1292.45 67.0 0.00 -- 37.7 99.0
12/15/2018 02:00 1292.46 67.0 0.00 -- 37.8 99.0
12/15/2018 01:00 1292.45 67.0 0.00 -- 37.1 100.0
12/15/2018 00:00 1292.45 67.0 0.00 0.00 36.7 100.0
12/14/2018 23:00 1292.46 67.0 0.00 -- 35.4 100.0
12/14/2018 22:00 1292.46 67.0 0.00 -- 34.8 99.0
12/14/2018 21:00 1292.47 67.0 0.00 -- 33.9 98.0
12/14/2018 20:00 1292.47 68.0 0.00 -- 33.9 94.0
12/14/2018 19:00 1292.47 68.0 0.00 -- 35.4 91.0
12/14/2018 18:00 1292.47 68.0 0.00 -- 34.2 91.0
12/14/2018 17:00 1292.48 68.0 0.00 -- 34.8 85.0
12/14/2018 16:00 1292.48 68.0 0.00 -- 34.3 85.0
12/14/2018 15:00 1292.48 68.0 0.00 -- 34.6 86.0
12/14/2018 14:00 1292.48 68.0 0.00 -- 34.5 82.0
12/14/2018 13:00 1292.50 69.0 0.00 -- 35.8 71.0
12/14/2018 12:00 1292.48 69.0 0.00 -- 32.1 85.0
12/14/2018 11:00 1292.49 69.0 0.00 -- 30.1 93.0
12/14/2018 10:00 1292.49 68.0 0.00 -- 28.5 88.0
12/14/2018 09:00 1292.49 69.0 0.00 -- 27.5 86.0
12/14/2018 08:00 1292.49 69.0 0.00 -- 26.0 92.0
12/14/2018 07:00 1292.50 69.0 0.00 -- 24.9 90.0
12/14/2018 06:00 1292.50 69.0 0.00 -- 24.8 88.0
12/14/2018 05:00 1292.50 70.0 0.00 -- 25.0 85.0
12/14/2018 04:00 1292.51 70.0 0.00 -- 23.2 86.0
12/14/2018 03:00 1292.51 70.0 0.00 -- 22.6 83.0
12/14/2018 02:00 1292.52 70.0 0.00 -- 22.4 77.0
12/14/2018 01:00 1292.52 70.0 0.00 -- 22.6 79.0
12/14/2018 00:00 1292.53 70.0 0.00 0.00 22.3 77.0
12/13/2018 23:00 1292.53 71.0 0.00 -- 22.0 80.0
12/13/2018 22:00 1292.54 71.0 0.00 -- 21.8 79.0
12/13/2018 21:00 1292.53 71.0 0.00 -- 20.7 73.0
12/13/2018 20:00 1292.54 71.0 0.00 -- 20.9 72.0
12/13/2018 19:00 1292.55 72.0 0.00 -- 22.0 74.0
12/13/2018 18:00 1292.55 72.0 0.00 -- 22.0 74.0
12/13/2018 17:00 1292.55 72.0 0.00 -- 21.9 75.0
12/13/2018 16:00 1292.56 72.0 0.00 -- 22.9 70.0
12/13/2018 15:00 1292.56 72.0 0.00 -- 23.3 65.0
12/13/2018 14:00 1292.56 72.0 0.00 -- 23.1 65.0
12/13/2018 13:00 1292.56 72.0 0.00 -- 22.1 64.0
12/13/2018 12:00 1292.56 73.0 0.00 -- 20.7 63.0
12/13/2018 11:00 1292.57 73.0 0.00 -- 17.6 58.0
12/13/2018 10:00 1292.56 73.0 0.00 -- 14.0 57.0
12/13/2018 09:00 1292.58 73.0 0.00 -- 8.7 76.0
12/13/2018 08:00 1292.58 73.0 0.00 -- 4.5 81.0
12/13/2018 07:00 1292.59 74.0 0.00 -- 2.6 81.0
12/13/2018 06:00 1292.59 74.0 0.00 -- 2.9 80.0
12/13/2018 05:00 1292.59 74.0 0.00 -- 2.1 82.0
12/13/2018 04:00 1292.60 74.0 0.00 -- 2.1 84.0
12/13/2018 03:00 1292.60 75.0 0.00 -- 1.3 83.0
12/13/2018 02:00 1292.61 75.0 0.00 -- 1.6 82.0
12/13/2018 01:00 1292.61 75.0 0.00 -- 3.4 86.0
12/13/2018 00:00 1292.62 75.0 0.00 0.00 5.1 82.0
12/12/2018 23:00 1292.62 75.0 0.00 -- 7.0 77.0
12/12/2018 22:00 1292.62 76.0 0.00 -- 9.1 69.0
12/12/2018 21:00 1292.63 76.0 0.00 -- 13.0 62.0
12/12/2018 20:00 1292.63 76.0 0.00 -- 13.2 60.0
12/12/2018 19:00 1292.64 76.0 0.00 -- 14.2 59.0
12/12/2018 18:00 1292.63 76.0 0.00 -- 16.2 59.0
12/12/2018 17:00 1292.64 76.0 0.00 -- 18.6 55.0
12/12/2018 16:00 1292.64 77.0 0.00 -- 21.8 50.0
12/12/2018 15:00 1292.65 77.0 0.00 -- 23.8 52.0
12/12/2018 14:00 1292.65 77.0 0.00 -- 25.1 52.0
12/12/2018 13:00 1292.66 78.0 0.00 -- 25.9 58.0
12/12/2018 12:00 1292.64 77.0 0.00 -- 25.1 60.0
12/12/2018 11:00 1292.65 77.0 0.00 -- 23.7 62.0
12/12/2018 10:00 1292.66 78.0 0.00 -- 23.1 70.0
12/12/2018 09:00 1292.66 78.0 0.00 -- 21.9 76.0
12/12/2018 08:00 1292.67 78.0 0.00 -- 19.0 86.0
12/12/2018 07:00 1292.67 78.0 0.00 -- 20.5 81.0
12/12/2018 06:00 1292.68 78.0 0.00 -- 20.7 79.0
12/12/2018 05:00 1292.68 79.0 0.00 -- 20.8 76.0
12/12/2018 04:00 1292.68 79.0 0.00 -- 20.9 71.0
12/12/2018 03:00 1292.68 79.0 0.00 -- 18.2 75.0
12/12/2018 02:00 1292.69 79.0 0.00 -- 17.2 76.0
12/12/2018 01:00 1292.69 79.0 0.00 -- 17.0 80.0
12/12/2018 00:00 1292.70 79.0 0.00 0.00 17.4 81.0
12/11/2018 23:00 1292.70 80.0 0.00 -- 19.2 74.0
12/11/2018 22:00 1292.70 80.0 0.00 -- 21.7 68.0
12/11/2018 21:00 1292.70 80.0 0.00 -- 22.5 63.0
12/11/2018 20:00 1292.71 80.0 0.00 -- 21.8 70.0
12/11/2018 19:00 1292.71 80.0 0.00 -- 21.1 75.0
12/11/2018 18:00 1292.71 81.0 0.00 -- 21.5 71.0
12/11/2018 17:00 1292.72 81.0 0.00 -- 21.9 64.0
12/11/2018 16:00 1292.72 81.0 0.00 -- 24.8 55.0
12/11/2018 15:00 1292.72 81.0 0.00 -- 25.4 53.0
12/11/2018 14:00 1292.73 81.0 0.00 -- 26.2 51.0
12/11/2018 13:00 1292.72 82.0 0.00 -- 26.3 52.0
12/11/2018 12:00 1292.72 81.0 0.00 -- 24.3 57.0
12/11/2018 11:00 1292.73 81.0 0.00 -- 21.5 68.0
12/11/2018 10:00 1292.74 82.0 0.00 -- 18.6 71.0
12/11/2018 09:00 1292.75 82.0 0.00 -- 9.0 86.0
12/11/2018 08:00 1292.75 82.0 0.00 -- 4.4 86.0
12/11/2018 07:00 1292.75 83.0 0.00 -- 3.8 87.0
12/11/2018 06:00 1292.76 83.0 0.00 -- 4.2 88.0
12/11/2018 05:00 1292.76 83.0 0.00 -- 4.7 87.0
12/11/2018 04:00 1292.77 83.0 0.00 -- 6.0 89.0
12/11/2018 03:00 1292.77 84.0 0.00 -- 7.2 90.0
12/11/2018 02:00 1292.77 84.0 0.00 -- 7.4 89.0
12/11/2018 01:00 1292.78 84.0 0.00 -- 8.3 91.0
12/11/2018 00:00 1292.77 84.0 0.00 0.00 9.3 92.0
12/10/2018 23:00 1292.78 84.0 0.00 -- 10.7 91.0
12/10/2018 22:00 1292.78 84.0 0.00 -- 12.9 85.0
12/10/2018 21:00 1292.79 85.0 0.00 -- 13.5 84.0
12/10/2018 20:00 1292.79 85.0 0.00 -- 14.9 80.0
12/10/2018 19:00 1292.79 85.0 0.00 -- 17.2 77.0
12/10/2018 18:00 1292.80 85.0 0.00 -- 19.4 68.0
12/10/2018 17:00 1292.80 86.0 0.00 -- 21.4 61.0
12/10/2018 16:00 1292.80 85.0 0.00 -- 24.1 56.0
12/10/2018 15:00 1292.81 86.0 0.00 -- 26.2 55.0
12/10/2018 14:00 1292.82 86.0 0.00 -- 27.2 51.0
12/10/2018 13:00 1292.81 86.0 0.00 -- 28.5 52.0
12/10/2018 12:00 1292.80 86.0 0.00 -- 26.5 53.0
12/10/2018 11:00 1292.81 86.0 0.00 -- 24.9 56.0
12/10/2018 10:00 1292.82 86.0 0.00 -- 24.2 60.0
12/10/2018 09:00 1292.81 86.0 0.00 -- 24.0 63.0
12/10/2018 08:00 1292.83 87.0 0.00 -- 23.2 73.0
12/10/2018 07:00 1292.83 87.0 0.00 -- 21.4 83.0
12/10/2018 06:00 1292.83 87.0 0.00 -- 20.6 86.0
12/10/2018 05:00 1292.83 87.0 0.00 -- 21.3 85.0
12/10/2018 04:00 1292.84 87.0 0.00 -- 18.8 92.0
12/10/2018 03:00 1292.84 87.0 0.00 -- 17.6 94.0
12/10/2018 02:00 1292.85 88.0 0.00 -- 17.5 91.0
12/10/2018 01:00 1292.85 88.0 0.00 -- 16.9 90.0
12/10/2018 00:00 1292.86 88.0 0.00 0.00 18.0 83.0
12/09/2018 23:00 1292.86 88.0 0.00 -- 17.3 87.0
12/09/2018 22:00 1292.87 88.0 0.00 -- 16.8 85.0
12/09/2018 21:00 1292.88 89.0 0.00 -- 21.3 70.0
12/09/2018 20:00 1292.87 90.0 0.00 -- 22.3 69.0
12/09/2018 19:00 1292.88 89.0 0.00 -- 23.2 69.0
12/09/2018 18:00 1292.88 90.0 0.00 -- 24.0 68.0
12/09/2018 17:00 1292.88 90.0 0.00 -- 24.2 68.0
12/09/2018 16:00 1292.88 90.0 0.00 -- 25.3 64.0
12/09/2018 15:00 1292.89 90.0 0.00 -- 25.7 64.0
12/09/2018 14:00 1292.90 90.0 0.00 -- 26.5 62.0
12/09/2018 13:00 1292.90 91.0 0.00 -- 24.6 67.0
12/09/2018 12:00 1292.90 91.0 0.00 -- 23.2 68.0
12/09/2018 11:00 1292.90 91.0 0.00 -- 21.2 71.0
12/09/2018 10:00 1292.90 91.0 0.00 -- 18.0 81.0
12/09/2018 09:00 1292.90 91.0 0.00 -- 14.4 87.0
12/09/2018 08:00 1292.92 91.0 0.00 -- 7.9 90.0
12/09/2018 07:00 1292.93 92.0 0.00 -- 6.0 86.0
12/09/2018 06:00 1292.93 92.0 0.00 -- 7.6 88.0
12/09/2018 05:00 1292.93 93.0 0.00 -- 5.4 85.0
12/09/2018 04:00 1292.94 93.0 0.00 -- 3.8 84.0
12/09/2018 03:00 1292.94 93.0 0.00 -- 2.7 84.0
12/09/2018 02:00 1292.95 93.0 0.00 -- 2.8 84.0
12/09/2018 01:00 1292.96 93.0 0.00 -- 3.5 84.0
12/09/2018 00:00 1292.96 94.0 0.00 0.00 3.1 84.0
12/08/2018 23:00 1292.97 94.0 0.00 -- 4.5 87.0
12/08/2018 22:00 1292.97 95.0 0.00 -- 4.8 85.0
12/08/2018 21:00 1292.97 95.0 0.00 -- 6.5 82.0
12/08/2018 20:00 1292.98 95.0 0.00 -- 7.6 77.0
12/08/2018 19:00 1292.98 95.0 0.00 -- 9.4 70.0
12/08/2018 18:00 1292.98 96.0 0.00 -- 10.7 65.0
12/08/2018 17:00 1292.99 96.0 0.00 -- 14.8 54.0
12/08/2018 16:00 1292.99 96.0 0.00 -- 18.0 44.0
12/08/2018 15:00 1293.00 96.0 0.00 -- 19.1 38.0
12/08/2018 14:00 1293.00 97.0 0.00 -- 19.2 38.0
12/08/2018 13:00 1292.99 96.0 0.00 -- 19.0 37.0
12/08/2018 12:00 1293.00 96.0 0.00 -- 16.0 45.0
12/08/2018 11:00 1292.99 97.0 0.00 -- 13.4 50.0
12/08/2018 10:00 1293.00 97.0 0.00 -- 11.3 63.0
12/08/2018 09:00 1293.01 97.0 0.00 -- 8.8 68.0
12/08/2018 08:00 1293.02 97.0 0.00 -- 4.7 84.0
12/08/2018 07:00 1293.03 97.0 0.00 -- 3.6 84.0
12/08/2018 06:00 1293.03 98.0 0.00 -- 4.6 86.0
12/08/2018 05:00 1293.03 98.0 0.00 -- 6.2 84.0
12/08/2018 04:00 1293.03 98.0 0.00 -- 7.5 80.0
12/08/2018 03:00 1293.04 99.0 0.00 -- 6.1 82.0
12/08/2018 02:00 1293.05 99.0 0.00 -- 8.0 75.0
12/08/2018 01:00 1293.05 100.0 0.00 -- 8.9 72.0
12/08/2018 00:00 1293.06 99.0 0.00 0.00 11.6 62.0
12/07/2018 23:00 1293.07 99.0 0.00 -- 11.5 62.0
12/07/2018 22:00 1293.07 100.0 0.00 -- 13.4 53.0
12/07/2018 21:00 1293.07 100.0 0.00 -- 13.8 59.0
12/07/2018 20:00 1293.08 100.0 0.00 -- 15.3 62.0
12/07/2018 19:00 1293.08 101.0 0.00 -- 18.0 53.0
12/07/2018 18:00 1293.08 101.0 0.00 -- 19.6 49.0
12/07/2018 17:00 1293.09 102.0 0.00 -- 20.6 43.0
12/07/2018 16:00 1293.10 101.0 0.00 -- 22.3 37.0
12/07/2018 15:00 1293.10 102.0 0.00 -- 24.0 37.0
12/07/2018 14:00 1293.09 102.0 0.00 -- 25.6 37.0
12/07/2018 13:00 1293.11 102.0 0.00 -- 26.9 38.0
12/07/2018 12:00 1293.10 103.0 0.00 -- 25.8 44.0
12/07/2018 11:00 1293.10 102.0 0.00 -- 24.5 51.0
12/07/2018 10:00 1293.12 102.0 0.00 -- 24.2 57.0
12/07/2018 09:00 1293.12 103.0 0.00 -- 24.6 68.0
12/07/2018 08:00 1293.11 103.0 0.00 -- 24.5 67.0
12/07/2018 07:00 1293.13 103.0 0.00 -- 22.9 90.0
12/07/2018 06:00 1293.12 104.0 0.00 -- 24.8 87.0
12/07/2018 05:00 1293.13 104.0 0.00 -- 23.0 95.0
12/07/2018 04:00 1293.13 104.0 0.00 -- 24.4 92.0
12/07/2018 03:00 1293.13 104.0 0.00 -- 25.2 84.0
12/07/2018 02:00 1293.13 104.0 0.00 -- 24.6 78.0
12/07/2018 01:00 1293.14 105.0 0.00 -- 25.4 72.0
12/07/2018 00:00 1293.14 104.0 0.00 0.00 26.2 69.0
12/06/2018 23:00 1293.14 104.0 0.00 -- 26.0 67.0
12/06/2018 22:00 1293.15 105.0 0.00 -- 25.7 69.0
12/06/2018 21:00 1293.15 105.0 0.00 -- 25.8 69.0
12/06/2018 20:00 1293.16 105.0 0.00 -- 26.4 68.0
12/06/2018 19:00 1293.16 105.0 0.00 -- 26.7 70.0
12/06/2018 18:00 1293.16 106.0 0.00 -- 27.2 67.0
12/06/2018 17:00 1293.17 106.0 0.00 -- 27.3 66.0
12/06/2018 16:00 1293.18 106.0 0.00 -- 27.8 62.0
12/06/2018 15:00 1293.17 107.0 0.00 -- 27.9 64.0
12/06/2018 14:00 1293.17 108.0 0.00 -- 27.4 68.0
12/06/2018 13:00 1293.19 107.0 0.00 -- 26.7 73.0
12/06/2018 12:00 1293.17 109.0 0.00 -- 27.8 69.0
12/06/2018 11:00 1293.18 107.0 0.00 -- 25.5 69.0
12/06/2018 10:00 1293.19 108.0 0.00 -- 23.1 76.0
12/06/2018 09:00 1293.18 108.0 0.00 -- 20.7 81.0
12/06/2018 08:00 1293.18 108.0 0.00 -- 18.2 91.0
12/06/2018 07:00 1293.20 110.0 0.00 -- 15.6 97.0
12/06/2018 06:00 1293.20 110.0 0.00 -- 16.8 96.0
12/06/2018 05:00 1293.20 110.0 0.00 -- 16.3 98.0
12/06/2018 04:00 1293.21 111.0 0.00 -- 20.5 93.0
12/06/2018 03:00 1293.21 110.0 0.00 -- 21.1 93.0
12/06/2018 02:00 1293.21 112.0 0.00 -- 21.7 92.0
12/06/2018 01:00 1293.21 111.0 0.00 -- 21.4 92.0
12/06/2018 00:00 1293.22 112.0 0.00 0.00 21.6 91.0
12/05/2018 23:00 1293.22 113.0 0.00 -- 21.9 88.0
12/05/2018 22:00 1293.22 112.0 0.00 -- 22.1 82.0
12/05/2018 21:00 1293.22 113.0 0.00 -- 22.8 81.0
12/05/2018 20:00 1293.23 113.0 0.00 -- 22.3 82.0
12/05/2018 19:00 1293.23 113.0 0.00 -- 22.0 80.0
12/05/2018 18:00 1293.23 114.0 0.00 -- 22.7 78.0
12/05/2018 17:00 1293.23 114.0 0.00 -- 23.1 71.0
12/05/2018 16:00 1293.23 114.0 0.00 -- 23.6 66.0
12/05/2018 15:00 1293.24 115.0 0.00 -- 24.1 63.0
12/05/2018 14:00 1293.23 114.0 0.00 -- 24.7 61.0
12/05/2018 13:00 1293.23 115.0 0.00 -- 24.7 52.0
12/05/2018 12:00 1293.23 114.0 0.00 -- 24.4 52.0
12/05/2018 11:00 1293.22 114.0 0.00 -- 22.7 53.0
12/05/2018 10:00 1293.22 113.0 0.00 -- 20.8 62.0
12/05/2018 09:00 1293.23 114.0 0.00 -- 17.1 74.0
12/05/2018 08:00 1293.23 114.0 0.00 -- 12.2 88.0
12/05/2018 07:00 1293.24 114.0 0.00 -- 13.2 84.0
12/05/2018 06:00 1293.23 114.0 0.00 -- 12.3 87.0
12/05/2018 05:00 1293.23 116.0 0.00 -- 12.4 88.0
12/05/2018 04:00 1293.24 115.0 0.00 -- 13.2 83.0
12/05/2018 03:00 1293.24 116.0 0.00 -- 14.0 80.0
12/05/2018 02:00 1293.25 116.0 0.00 -- 14.5 76.0
12/05/2018 01:00 1293.25 116.0 0.00 -- 14.8 78.0
12/05/2018 00:00 1293.24 117.0 0.00 0.00 13.0 84.0
12/04/2018 23:00 1293.25 118.0 0.00 -- 15.0 73.0
12/04/2018 22:00 1293.25 116.0 0.00 -- 15.1 78.0
12/04/2018 21:00 1293.24 116.0 0.00 -- 15.2 74.0
12/04/2018 20:00 1293.24 116.0 0.00 -- 16.7 67.0
12/04/2018 19:00 1293.25 117.0 0.00 -- 18.4 66.0
12/04/2018 18:00 1293.24 116.0 0.00 -- 20.1 59.0
12/04/2018 17:00 1293.24 116.0 0.00 -- 19.8 60.0
12/04/2018 16:00 1293.25 116.0 0.00 -- 21.9 52.0
12/04/2018 15:00 1293.23 116.0 0.00 -- 22.9 53.0
12/04/2018 14:00 1293.24 115.0 0.00 -- 24.3 49.0
12/04/2018 13:00 1293.23 115.0 0.00 -- 23.2 52.0
12/04/2018 12:00 1293.23 113.0 0.00 -- 24.1 53.0
12/04/2018 11:00 1293.22 111.0 0.00 -- 23.5 60.0
12/04/2018 10:00 1293.21 113.0 0.00 -- 24.1 64.0
12/04/2018 09:00 1293.20 112.0 0.00 -- 24.4 65.0
12/04/2018 08:00 1293.20 112.0 0.00 -- 25.0 70.0
12/04/2018 07:00 1293.20 111.0 0.00 -- 25.8 70.0
12/04/2018 06:00 1293.19 109.0 0.00 -- 26.7 67.0
12/04/2018 05:00 1293.18 109.0 0.00 -- 26.7 73.0
12/04/2018 04:00 1293.18 108.0 0.00 -- 26.8 70.0
12/04/2018 03:00 1293.16 109.0 0.00 -- 26.8 73.0
12/04/2018 02:00 1293.17 107.0 0.00 -- 26.9 72.0
12/04/2018 01:00 1293.17 106.0 0.00 -- 27.5 73.0
12/04/2018 00:00 1293.15 105.0 0.00 0.00 28.8 78.0
12/03/2018 23:00 1293.15 105.0 0.00 -- 30.2 83.0
12/03/2018 22:00 1293.13 104.0 0.00 -- 31.5 94.0
12/03/2018 21:00 1293.11 104.0 0.01 -- 33.0 91.0
12/03/2018 20:00 1293.11 103.0 0.01 -- 36.4 76.0
12/03/2018 19:00 1293.10 103.0 0.01 -- 36.8 76.0
12/03/2018 18:00 1293.09 102.0 0.02 -- 37.6 74.0
12/03/2018 17:00 1293.08 101.0 0.03 -- 38.4 72.0
12/03/2018 16:00 1293.07 101.0 0.05 -- 39.2 71.0
12/03/2018 15:00 1293.06 101.0 0.04 -- 39.7 71.0
12/03/2018 14:00 1293.05 100.0 0.06 -- 40.1 72.0
12/03/2018 13:00 1293.01 99.0 0.09 -- 40.0 76.0
12/03/2018 12:00 1293.05 99.0 0.13 -- 42.0 78.0
12/03/2018 11:00 1293.03 98.0 0.13 -- 38.4 100.0
12/03/2018 10:00 1293.00 98.0 0.13 -- 37.7 100.0
12/03/2018 09:00 1293.00 97.0 0.10 -- 36.2 100.0
12/03/2018 08:00 1292.99 97.0 0.06 -- 33.8 100.0
12/03/2018 07:00 1292.98 95.0 0.01 -- 32.5 100.0
12/03/2018 06:00 1292.98 95.0 0.01 -- 30.4 100.0
12/03/2018 05:00 1292.97 95.0 0.03 -- 31.8 100.0
12/03/2018 04:00 1292.97 94.0 0.03 -- 31.2 100.0
12/03/2018 03:00 1292.95 94.0 0.07 -- 34.3 100.0
12/03/2018 02:00 1292.95 93.0 0.14 -- 34.8 100.0
12/03/2018 01:00 1292.93 93.0 0.14 -- 35.9 100.0
12/03/2018 00:00 1292.93 93.0 0.16 1.30 36.2 100.0
12/02/2018 23:00 1292.92 92.0 0.10 -- 36.1 100.0
12/02/2018 22:00 1292.91 92.0 0.01 -- 33.8 100.0
12/02/2018 21:00 1292.91 91.0 0.01 -- 30.8 100.0
12/02/2018 20:00 1292.89 91.0 0.02 -- 30.9 100.0
12/02/2018 19:00 1292.89 91.0 0.01 -- 30.9 100.0
12/02/2018 18:00 1292.88 90.0 0.02 -- 30.9 100.0
12/02/2018 17:00 1292.88 90.0 0.02 -- 31.4 100.0
12/02/2018 16:00 1292.87 89.0 0.04 -- 32.2 100.0
12/02/2018 15:00 1292.86 89.0 0.04 -- 32.3 100.0
12/02/2018 14:00 1292.85 89.0 0.05 -- 32.5 100.0
12/02/2018 13:00 1292.85 88.0 0.04 -- 32.4 100.0
12/02/2018 12:00 1292.84 88.0 0.01 -- 31.8 100.0
12/02/2018 11:00 1292.83 88.0 0.02 -- 31.6 100.0
12/02/2018 10:00 1292.83 87.0 0.05 -- 31.0 100.0
12/02/2018 09:00 1292.82 87.0 0.01 -- 30.6 100.0
12/02/2018 08:00 1292.82 87.0 0.00 -- 30.4 100.0
12/02/2018 07:00 1292.82 87.0 0.00 -- 30.3 100.0
12/02/2018 06:00 1292.81 86.0 0.00 -- 30.2 100.0
12/02/2018 05:00 1292.80 86.0 0.00 -- 30.2 100.0
12/02/2018 04:00 1292.80 85.0 0.00 -- 29.8 100.0
12/02/2018 03:00 1292.78 85.0 0.00 -- 28.4 99.0
12/02/2018 02:00 1292.78 84.0 0.00 -- 26.5 99.0
12/02/2018 01:00 1292.78 84.0 0.00 -- 26.1 99.0
12/02/2018 00:00 1292.79 85.0 0.00 0.61 25.5 99.0
12/01/2018 23:00 1292.79 85.0 0.00 -- 25.1 99.0
12/01/2018 22:00 1292.79 85.0 0.00 -- 24.5 99.0
12/01/2018 21:00 1292.79 85.0 0.00 -- 24.2 99.0
12/01/2018 20:00 1292.79 85.0 0.00 -- 23.8 99.0
12/01/2018 19:00 1292.80 85.0 0.00 -- 23.8 99.0
12/01/2018 18:00 1292.80 85.0 0.00 -- 25.6 99.0
12/01/2018 17:00 1292.80 85.0 0.00 -- 26.3 99.0
12/01/2018 16:00 1292.80 86.0 0.00 -- 28.2 90.0
12/01/2018 15:00 1292.80 86.0 0.00 -- 29.2 86.0
12/01/2018 14:00 1292.81 86.0 0.00 -- 29.6 83.0
12/01/2018 13:00 1292.81 86.0 0.00 -- 29.5 83.0
12/01/2018 12:00 1292.81 86.0 0.00 -- 29.2 82.0
12/01/2018 11:00 1292.80 86.0 0.00 -- 29.2 80.0
12/01/2018 10:00 1292.81 86.0 0.00 -- 28.4 85.0
12/01/2018 09:00 1292.81 87.0 0.00 -- 28.0 85.0
12/01/2018 08:00 1292.82 86.0 0.00 -- 27.7 88.0
12/01/2018 07:00 1292.82 87.0 0.00 -- 27.5 88.0
12/01/2018 06:00 1292.82 86.0 0.00 -- 27.5 89.0
12/01/2018 05:00 1292.82 87.0 0.00 -- 26.7 97.0
12/01/2018 04:00 1292.83 87.0 0.00 -- 26.0 99.0
12/01/2018 03:00 1292.83 87.0 0.00 -- 27.0 92.0
12/01/2018 02:00 1292.83 87.0 0.00 -- 26.9 91.0
12/01/2018 01:00 1292.83 87.0 0.00 -- 26.8 95.0
12/01/2018 00:00 1292.84 87.0 0.00 0.00 26.9 93.0
11/30/2018 23:00 1292.84 88.0 0.00 -- 26.9 92.0
11/30/2018 22:00 1292.85 88.0 0.00 -- 27.0 92.0
11/30/2018 21:00 1292.85 88.0 0.00 -- 27.0 95.0
11/30/2018 20:00 1292.85 88.0 0.00 -- 26.9 96.0
11/30/2018 19:00 1292.85 88.0 0.00 -- 27.2 94.0
11/30/2018 18:00 1292.85 88.0 0.00 -- 27.1 99.0
11/30/2018 17:00 1292.86 88.0 0.00 -- 27.6 93.0
11/30/2018 16:00 1292.86 88.0 0.00 -- 27.9 88.0
11/30/2018 15:00 1292.86 89.0 0.00 -- 28.2 87.0
11/30/2018 14:00 1292.86 89.0 0.00 -- 28.1 83.0
11/30/2018 13:00 1292.87 89.0 0.00 -- 28.1 84.0
11/30/2018 12:00 1292.87 89.0 0.00 -- 28.2 80.0
11/30/2018 11:00 1292.87 89.0 0.00 -- 27.8 81.0
11/30/2018 10:00 1292.87 89.0 0.00 -- 28.0 83.0
11/30/2018 09:00 1292.87 89.0 0.00 -- 27.4 85.0
11/30/2018 08:00 1292.88 89.0 0.00 -- 27.3 85.0
11/30/2018 07:00 1292.88 89.0 0.00 -- 27.3 87.0
11/30/2018 06:00 1292.88 89.0 0.00 -- 27.4 88.0
11/30/2018 05:00 1292.88 89.0 0.00 -- 27.4 88.0
11/30/2018 04:00 1292.88 90.0 0.00 -- 27.2 87.0
11/30/2018 03:00 1292.89 90.0 0.00 -- 27.5 87.0
11/30/2018 02:00 1292.89 90.0 0.00 -- 27.6 91.0
11/30/2018 01:00 1292.89 90.0 0.00 -- 28.1 87.0
11/30/2018 00:00 1292.89 90.0 0.00 0.00 28.2 86.0
11/29/2018 23:00 1292.89 90.0 0.00 -- 28.3 86.0
11/29/2018 22:00 1292.90 91.0 0.00 -- 28.3 88.0
11/29/2018 21:00 1292.89 91.0 0.00 -- 28.6 85.0
11/29/2018 20:00 1292.90 92.0 0.00 -- 28.9 85.0
11/29/2018 19:00 1292.91 91.0 0.00 -- 29.5 88.0
11/29/2018 18:00 1292.90 91.0 0.00 -- 29.9 87.0
11/29/2018 17:00 1292.91 92.0 0.00 -- 30.4 89.0
11/29/2018 16:00 1292.91 91.0 0.00 -- 31.2 84.0
11/29/2018 15:00 1292.91 92.0 0.00 -- 31.5 82.0
11/29/2018 14:00 1292.91 92.0 0.00 -- 31.7 82.0
11/29/2018 13:00 1292.90 92.0 0.00 -- 32.3 82.0
11/29/2018 12:00 1292.91 91.0 0.00 -- 32.3 81.0
11/29/2018 11:00 1292.92 91.0 0.00 -- 31.9 79.0
11/29/2018 10:00 1292.92 92.0 0.00 -- 32.0 81.0
11/29/2018 09:00 1292.93 92.0 0.00 -- 31.0 86.0
11/29/2018 08:00 1292.92 93.0 0.00 -- 30.2 86.0
11/29/2018 07:00 1292.94 93.0 0.00 -- 30.0 82.0
11/29/2018 06:00 1292.92 92.0 0.00 -- 29.9 84.0
11/29/2018 05:00 1292.92 93.0 0.00 -- 30.1 86.0
11/29/2018 04:00 1292.93 92.0 0.00 -- 29.6 96.0
11/29/2018 03:00 1292.93 93.0 0.00 -- 29.7 93.0
11/29/2018 02:00 1292.93 92.0 0.00 -- 29.2 98.0
11/29/2018 01:00 1292.92 92.0 0.00 -- 28.5 99.0
11/29/2018 00:00 1292.94 92.0 0.00 0.00 29.2 95.0
11/28/2018 23:00 1292.93 93.0 0.00 -- 28.8 97.0
11/28/2018 22:00 1292.94 93.0 0.00 -- 29.2 99.0
11/28/2018 21:00 1292.94 93.0 0.00 -- 29.0 99.0
11/28/2018 20:00 1292.94 93.0 0.00 -- 29.1 99.0
11/28/2018 19:00 1292.94 94.0 0.00 -- 29.5 99.0
11/28/2018 18:00 1292.94 93.0 0.00 -- 29.4 99.0
11/28/2018 17:00 1292.94 93.0 0.00 -- 29.6 99.0
11/28/2018 16:00 1292.94 94.0 0.00 -- 30.0 97.0
11/28/2018 15:00 1292.93 92.0 0.00 -- 30.0 99.0
11/28/2018 14:00 1292.94 93.0 0.01 -- 30.6 98.0
11/28/2018 13:00 1292.94 93.0 0.00 -- 31.8 92.0
11/28/2018 12:00 1292.94 93.0 0.00 -- 30.7 92.0
11/28/2018 11:00 1292.94 93.0 0.00 -- 30.6 92.0
11/28/2018 10:00 1292.93 93.0 0.00 -- 29.2 99.0
11/28/2018 09:00 1292.93 93.0 0.00 -- 28.0 99.0
11/28/2018 08:00 1292.94 93.0 0.00 -- 27.6 99.0
11/28/2018 07:00 1292.94 93.0 0.00 -- 27.2 99.0
11/28/2018 06:00 1292.94 93.0 0.00 -- 27.3 99.0
11/28/2018 05:00 1292.94 93.0 0.00 -- 27.4 99.0
11/28/2018 04:00 1292.93 93.0 0.00 -- 27.6 99.0
11/28/2018 03:00 1292.93 93.0 0.00 -- 27.8 99.0
11/28/2018 02:00 1292.93 93.0 0.00 -- 28.3 99.0
11/28/2018 01:00 1292.93 93.0 0.00 -- 28.8 99.0
11/28/2018 00:00 1292.93 93.0 0.00 0.01 29.0 99.0
11/27/2018 23:00 1292.92 93.0 0.00 -- 29.4 99.0
11/27/2018 22:00 1292.92 93.0 0.00 -- 29.6 99.0
11/27/2018 21:00 1292.92 92.0 0.00 -- 29.6 99.0
11/27/2018 20:00 1292.93 93.0 0.00 -- 29.7 99.0
11/27/2018 19:00 1292.92 92.0 0.00 -- 30.0 99.0
11/27/2018 18:00 1292.92 92.0 0.00 -- 30.5 99.0
11/27/2018 17:00 1292.92 -- 0.01 -- 31.0 99.5
11/27/2018 16:00 1292.92 -- 0.00 -- 30.8 100.0
11/27/2018 15:00 1292.92 92.0 0.00 -- 30.8 100.0
11/27/2018 14:00 1292.91 92.0 0.00 -- 30.7 100.0
11/27/2018 13:00 1292.93 92.0 0.00 -- 30.8 100.0
11/27/2018 12:00 1292.90 -- 0.00 -- 30.3 100.0
11/27/2018 11:00 1292.89 91.0 0.00 -- 30.1 100.0
11/27/2018 10:00 1292.90 91.0 0.00 -- 29.3 100.0
11/27/2018 09:00 1292.89 -- 0.00 -- 29.5 100.0
11/27/2018 08:00 1292.88 90.0 0.00 -- 29.3 100.0
11/27/2018 07:00 1292.88 90.0 0.00 -- 29.2 100.0
11/27/2018 06:00 1292.88 90.0 0.00 -- 29.0 100.0
11/27/2018 05:00 1292.86 89.0 0.00 -- 28.9 100.0
11/27/2018 04:00 1292.86 89.0 0.01 -- 28.9 100.0
11/27/2018 03:00 1292.86 89.0 0.00 -- 29.0 100.0
11/27/2018 02:00 1292.86 89.0 0.00 -- 29.3 100.0
11/27/2018 01:00 1292.84 88.0 0.01 -- 29.7 100.0
11/27/2018 00:00 1292.84 88.0 0.01 0.03 30.0 100.0
11/26/2018 23:00 1292.83 87.0 0.01 -- 30.1 100.0
11/26/2018 22:00 1292.82 87.0 0.01 -- 30.3 100.0
11/26/2018 21:00 1292.81 87.0 0.00 -- 30.3 100.0
11/26/2018 20:00 1292.80 86.0 0.06 -- 30.4 100.0
11/26/2018 19:00 1292.78 85.0 0.16 -- 31.6 100.0
11/26/2018 18:00 1292.77 84.0 0.07 -- 32.8 100.0
11/26/2018 17:00 1292.76 84.0 0.04 -- 32.4 100.0
11/26/2018 16:00 1292.76 84.0 0.05 -- 32.5 100.0
11/26/2018 15:00 1292.76 84.0 0.02 -- 32.5 100.0
11/26/2018 14:00 1292.76 83.0 0.03 -- 32.4 100.0
11/26/2018 13:00 1292.76 83.0 0.02 -- 31.5 100.0
11/26/2018 12:00 1292.76 83.0 0.02 -- 32.2 100.0
11/26/2018 11:00 1292.76 83.0 0.00 -- 31.8 100.0
11/26/2018 10:00 1292.76 83.0 0.00 -- 31.6 100.0
11/26/2018 09:00 1292.76 83.0 0.00 -- 31.5 100.0
11/26/2018 08:00 1292.76 83.0 0.01 -- 30.4 100.0
11/26/2018 07:00 1292.76 83.0 0.00 -- 30.3 100.0
11/26/2018 06:00 1292.77 84.0 0.00 -- 30.2 100.0
11/26/2018 05:00 1292.77 83.0 0.00 -- 30.1 100.0
11/26/2018 04:00 1292.77 84.0 0.00 -- 29.7 100.0
11/26/2018 03:00 1292.77 84.0 0.00 -- 29.3 100.0
11/26/2018 02:00 1292.78 84.0 0.00 -- 29.6 100.0
11/26/2018 01:00 1292.77 84.0 0.00 -- 30.5 100.0
11/26/2018 00:00 1292.78 84.0 0.00 0.51 30.7 100.0
11/25/2018 23:00 1292.78 84.0 0.01 -- 31.2 100.0
11/25/2018 22:00 1292.79 84.0 0.02 -- 32.6 100.0
11/25/2018 21:00 1292.78 85.0 0.01 -- 34.2 100.0
11/25/2018 20:00 1292.79 84.0 0.01 -- 31.7 100.0
11/25/2018 19:00 1292.79 84.0 0.01 -- 31.9 100.0
11/25/2018 18:00 1292.79 85.0 0.01 -- 32.3 100.0
11/25/2018 17:00 1292.79 85.0 0.03 -- 32.8 100.0
11/25/2018 16:00 1292.79 85.0 0.02 -- 34.1 100.0
11/25/2018 15:00 1292.80 85.0 0.04 -- 34.6 100.0
11/25/2018 14:00 1292.80 85.0 0.06 -- 36.0 100.0
11/25/2018 13:00 1292.80 85.0 0.05 -- 36.0 100.0
11/25/2018 12:00 1292.81 85.0 0.04 -- 35.1 100.0
11/25/2018 11:00 1292.81 86.0 0.03 -- 34.2 100.0
11/25/2018 10:00 1292.81 86.0 0.03 -- 33.7 100.0
11/25/2018 09:00 1292.81 86.0 0.02 -- 33.4 100.0
11/25/2018 08:00 1292.82 86.0 0.02 -- 32.7 100.0
11/25/2018 07:00 1292.82 86.0 0.01 -- 31.9 100.0
11/25/2018 06:00 1292.82 86.0 0.02 -- 32.2 100.0
11/25/2018 05:00 1292.83 87.0 0.02 -- 32.2 100.0
11/25/2018 04:00 -- -- -- -- 31.2 100.0
11/25/2018 03:00 -- -- -- -- 31.0 100.0
11/25/2018 02:00 -- -- -- -- 30.5 100.0
11/25/2018 01:00 -- -- -- -- 31.0 100.0
11/25/2018 00:00 -- -- -- 0.49 30.8 100.0